Time,TemperatureF,DewpointF,PressureIn,WindDirection,WindDirectionDegrees,WindSpeedMPH,WindSpeedGustMPH,Humidity,HourlyPrecipIn,Conditions,Clouds,dailyrainin,SolarRadiationWatts/m^2,SoftwareType,DateUTC
2013-02-11 00:00:00,49.4,47.5,29.66,WNW,292,8.0,20.0,93,0.00,,,0.06,0.00,VWS V14.01,2013-02-11 05:00:00,
2013-02-11 00:05:00,49.4,47.5,29.65,WSW,256,7.0,23.0,93,0.00,,,0.00,0.00,VWS V14.01,2013-02-11 05:05:00,
2013-02-11 00:10:00,49.4,47.5,29.65,WSW,246,4.0,13.0,93,0.00,,,0.00,0.00,VWS V14.01,2013-02-11 05:10:00,
2013-02-11 00:15:00,49.3,47.4,29.66,SW,234,8.0,13.0,93,0.00,,,0.00,0.00,VWS V14.01,2013-02-11 05:15:00,
2013-02-11 00:20:00,49.4,47.5,29.65,West,264,12.0,15.0,93,0.00,,,0.00,0.00,VWS V14.01,2013-02-11 05:20:00,
2013-02-11 00:25:00,49.5,47.6,29.64,West,260,8.0,15.0,93,0.00,,,0.00,0.00,VWS V14.01,2013-02-11 05:25:00,
2013-02-11 00:30:00,49.5,47.3,29.64,West,264,8.0,14.0,92,0.00,,,0.00,0.00,VWS V14.01,2013-02-11 05:30:00,
2013-02-11 00:35:00,49.3,47.4,29.64,West,259,13.0,17.0,93,0.00,,,0.00,0.00,VWS V14.01,2013-02-11 05:35:00,
2013-02-11 00:40:00,49.4,47.5,29.65,WNW,291,12.0,12.0,93,0.00,,,0.00,0.00,VWS V14.01,2013-02-11 05:40:00,
2013-02-11 00:45:00,49.5,47.6,29.65,SW,232,8.0,13.0,93,0.00,,,0.00,0.00,VWS V14.01,2013-02-11 05:45:00,
2013-02-11 00:50:00,49.6,47.7,29.65,NW,307,9.0,12.0,93,0.00,,,0.00,0.00,VWS V14.01,2013-02-11 05:50:00,
2013-02-11 00:55:00,49.6,47.7,29.65,WNW,292,5.0,14.0,93,0.00,,,0.00,0.00,VWS V14.01,2013-02-11 05:55:00,
2013-02-11 01:00:00,49.6,47.7,29.64,West,279,8.0,10.0,93,0.00,,,0.00,0.00,VWS V14.01,2013-02-11 06:00:00,
2013-02-11 01:05:00,49.6,47.4,29.64,WSW,246,12.0,12.0,92,0.00,,,0.00,0.00,VWS V14.01,2013-02-11 06:05:00,
2013-02-11 01:10:00,49.6,47.4,29.64,WSW,254,6.0,8.0,92,0.00,,,0.00,0.00,VWS V14.01,2013-02-11 06:10:00,
2013-02-11 01:15:00,49.6,47.7,29.65,West,262,9.0,13.0,93,0.00,,,0.00,0.00,VWS V14.01,2013-02-11 06:15:00,
2013-02-11 01:20:00,49.5,47.6,29.64,WSW,253,7.0,15.0,93,0.00,,,0.00,0.00,VWS V14.01,2013-02-11 06:20:00,
2013-02-11 01:21:00,49.5,47.6,29.64,West,274,8.0,15.0,93,0.00,,,0.00,0.00,VWS V14.01,2013-02-11 06:21:00,
2013-02-11 01:25:00,49.4,47.5,29.64,WSW,255,10.0,10.0,93,0.00,,,0.00,0.00,VWS V14.01,2013-02-11 06:25:00,
2013-02-11 01:26:00,49.4,47.5,29.64,West,277,5.0,5.0,93,0.00,,,0.00,0.00,VWS V14.01,2013-02-11 06:26:00,
2013-02-11 01:30:00,49.4,47.5,29.64,West,261,9.0,12.0,93,0.00,,,0.00,0.00,VWS V14.01,2013-02-11 06:30:00,
2013-02-11 01:31:00,49.3,47.4,29.64,West,268,10.0,11.0,93,0.00,,,0.00,0.00,VWS V14.01,2013-02-11 06:31:00,
2013-02-11 01:35:00,49.3,47.4,29.64,WSW,240,5.0,6.0,93,0.00,,,0.00,0.00,VWS V14.01,2013-02-11 06:35:00,
2013-02-11 01:36:00,49.3,47.4,29.64,West,265,2.0,6.0,93,0.00,,,0.00,0.00,VWS V14.01,2013-02-11 06:36:00,
2013-02-11 01:40:00,49.1,47.2,29.64,West,266,3.0,7.0,93,0.00,,,0.00,0.00,VWS V14.01,2013-02-11 06:40:00,
2013-02-11 01:41:00,49.1,47.2,29.64,West,261,6.0,8.0,93,0.00,,,0.00,0.00,VWS V14.01,2013-02-11 06:41:00,
2013-02-11 01:45:00,48.9,47.2,29.64,West,280,5.0,9.0,94,0.00,,,0.00,0.00,VWS V14.01,2013-02-11 06:45:00,
2013-02-11 01:46:00,48.9,47.2,29.64,WSW,253,3.0,9.0,94,0.00,,,0.00,0.00,VWS V14.01,2013-02-11 06:46:00,
2013-02-11 01:50:00,48.7,46.8,29.64,West,259,12.0,14.0,93,0.00,,,0.00,0.00,VWS V14.01,2013-02-11 06:50:00,
2013-02-11 01:51:00,48.7,46.8,29.64,West,269,9.0,15.0,93,0.00,,,0.00,0.00,VWS V14.01,2013-02-11 06:51:00,
2013-02-11 01:55:00,48.7,47.0,29.64,NW,322,6.0,10.0,94,0.00,,,0.00,0.00,VWS V14.01,2013-02-11 06:55:00,
2013-02-11 01:56:00,48.6,47.0,29.64,West,268,6.0,11.0,94,0.00,,,0.00,0.00,VWS V14.01,2013-02-11 06:56:00,
2013-02-11 02:00:00,48.5,46.9,29.64,WNW,298,7.0,9.0,94,0.00,,,0.00,0.00,VWS V14.01,2013-02-11 07:00:00,
2013-02-11 02:01:00,48.5,46.9,29.64,West,275,4.0,5.0,94,0.00,,,0.00,0.00,VWS V14.01,2013-02-11 07:01:00,
2013-02-11 02:05:00,48.5,46.9,29.64,WNW,298,6.0,7.0,94,0.00,,,0.00,0.00,VWS V14.01,2013-02-11 07:05:00,
2013-02-11 02:06:00,48.5,46.9,29.64,WNW,291,2.0,3.0,94,0.00,,,0.00,0.00,VWS V14.01,2013-02-11 07:06:00,
2013-02-11 02:10:00,48.5,46.9,29.64,West,279,6.0,8.0,94,0.00,,,0.00,0.00,VWS V14.01,2013-02-11 07:10:00,
2013-02-11 02:11:00,48.5,46.9,29.64,WNW,287,6.0,6.0,94,0.00,,,0.00,0.00,VWS V14.01,2013-02-11 07:11:00,
2013-02-11 02:15:00,48.6,47.0,29.64,West,271,5.0,10.0,94,0.00,,,0.00,0.00,VWS V14.01,2013-02-11 07:15:00,
2013-02-11 02:16:00,48.6,47.0,29.64,West,261,3.0,8.0,94,0.00,,,0.00,0.00,VWS V14.01,2013-02-11 07:16:00,
2013-02-11 02:20:00,48.6,47.0,29.64,WNW,290,5.0,9.0,94,0.00,,,0.00,0.00,VWS V14.01,2013-02-11 07:20:00,
2013-02-11 02:21:00,48.6,47.0,29.64,WNW,284,5.0,9.0,94,0.00,,,0.00,0.00,VWS V14.01,2013-02-11 07:21:00,
2013-02-11 02:25:00,48.6,46.7,29.64,WSW,254,10.0,13.0,93,0.00,,,0.00,0.00,VWS V14.01,2013-02-11 07:25:00,
2013-02-11 02:26:00,48.7,46.8,29.64,WSW,258,6.0,6.0,93,0.00,,,0.00,0.00,VWS V14.01,2013-02-11 07:26:00,
2013-02-11 02:30:00,48.6,46.7,29.64,West,280,16.0,16.0,93,0.00,,,0.00,0.00,VWS V14.01,2013-02-11 07:30:00,
2013-02-11 02:31:00,48.7,46.8,29.64,WSW,245,7.0,10.0,93,0.00,,,0.00,0.00,VWS V14.01,2013-02-11 07:31:00,
2013-02-11 02:32:00,48.7,46.8,29.64,WNW,296,7.0,10.0,93,0.00,,,0.00,0.00,VWS V14.01,2013-02-11 07:32:00,
2013-02-11 02:36:00,48.7,46.8,29.64,West,281,7.0,9.0,93,0.00,,,0.00,0.00,VWS V14.01,2013-02-11 07:36:00,
2013-02-11 02:37:00,48.7,46.8,29.64,WNW,288,8.0,11.0,93,0.00,,,0.00,0.00,VWS V14.01,2013-02-11 07:37:00,
2013-02-11 02:41:00,48.7,46.8,29.64,West,271,6.0,11.0,93,0.00,,,0.00,0.00,VWS V14.01,2013-02-11 07:41:00,
2013-02-11 02:42:00,48.7,46.8,29.64,West,281,8.0,10.0,93,0.00,,,0.00,0.00,VWS V14.01,2013-02-11 07:42:00,
2013-02-11 02:46:00,48.7,46.8,29.64,WNW,298,8.0,17.0,93,0.00,,,0.00,0.00,VWS V14.01,2013-02-11 07:46:00,
2013-02-11 02:47:00,48.7,46.8,29.64,West,276,4.0,14.0,93,0.00,,,0.00,0.00,VWS V14.01,2013-02-11 07:47:00,
2013-02-11 02:51:00,48.6,46.7,29.64,WNW,290,3.0,6.0,93,0.00,,,0.00,0.00,VWS V14.01,2013-02-11 07:51:00,
2013-02-11 02:52:00,48.6,46.4,29.64,West,276,5.0,7.0,92,0.00,,,0.00,0.00,VWS V14.01,2013-02-11 07:52:00,
2013-02-11 02:56:00,48.4,46.2,29.64,West,273,4.0,10.0,92,0.00,,,0.00,0.00,VWS V14.01,2013-02-11 07:56:00,
2013-02-11 02:57:00,48.4,46.5,29.64,West,263,9.0,11.0,93,0.00,,,0.00,0.00,VWS V14.01,2013-02-11 07:57:00,
2013-02-11 03:01:00,48.4,46.5,29.64,West,272,6.0,14.0,93,0.00,,,0.00,0.00,VWS V14.01,2013-02-11 08:01:00,
2013-02-11 03:02:00,48.4,46.5,29.64,WSW,257,9.0,14.0,93,0.00,,,0.00,0.00,VWS V14.01,2013-02-11 08:02:00,
2013-02-11 03:06:00,48.5,46.6,29.64,West,275,12.0,12.0,93,0.00,,,0.00,0.00,VWS V14.01,2013-02-11 08:06:00,
2013-02-11 03:07:00,48.5,46.6,29.64,WNW,290,3.0,12.0,93,0.00,,,0.00,0.00,VWS V14.01,2013-02-11 08:07:00,
2013-02-11 03:11:00,48.4,46.2,29.64,West,281,6.0,6.0,92,0.00,,,0.00,0.00,VWS V14.01,2013-02-11 08:11:00,
2013-02-11 03:12:00,48.4,46.2,29.64,West,267,10.0,10.0,92,0.00,,,0.00,0.00,VWS V14.01,2013-02-11 08:12:00,
2013-02-11 03:16:00,48.3,46.4,29.64,WNW,285,4.0,9.0,93,0.00,,,0.00,0.00,VWS V14.01,2013-02-11 08:16:00,
2013-02-11 03:17:00,48.2,46.3,29.64,West,279,6.0,6.0,93,0.00,,,0.00,0.00,VWS V14.01,2013-02-11 08:17:00,
2013-02-11 03:21:00,48.2,46.0,29.63,West,266,7.0,7.0,92,0.00,,,0.00,0.00,VWS V14.01,2013-02-11 08:21:00,
2013-02-11 03:22:00,48.2,46.0,29.63,West,277,6.0,11.0,92,0.00,,,0.00,0.00,VWS V14.01,2013-02-11 08:22:00,
2013-02-11 03:26:00,48.2,46.0,29.63,West,267,11.0,11.0,92,0.00,,,0.00,0.00,VWS V14.01,2013-02-11 08:26:00,
2013-02-11 03:27:00,48.2,46.0,29.63,West,266,6.0,11.0,92,0.00,,,0.00,0.00,VWS V14.01,2013-02-11 08:27:00,
2013-02-11 03:31:00,48.3,46.1,29.64,WNW,293,4.0,4.0,92,0.00,,,0.00,0.00,VWS V14.01,2013-02-11 08:31:00,
2013-02-11 03:32:00,48.2,45.7,29.64,West,261,7.0,11.0,91,0.00,,,0.00,0.00,VWS V14.01,2013-02-11 08:32:00,
2013-02-11 03:36:00,48.3,45.5,29.63,West,281,13.0,13.0,90,0.00,,,0.00,0.00,VWS V14.01,2013-02-11 08:36:00,
2013-02-11 03:37:00,48.3,45.5,29.63,WNW,284,4.0,16.0,90,0.00,,,0.00,0.00,VWS V14.01,2013-02-11 08:37:00,
2013-02-11 03:41:00,48.5,45.4,29.63,West,269,8.0,9.0,89,0.00,,,0.00,0.00,VWS V14.01,2013-02-11 08:41:00,
2013-02-11 03:42:00,48.5,45.4,29.63,WNW,294,8.0,13.0,89,0.00,,,0.00,0.00,VWS V14.01,2013-02-11 08:42:00,
2013-02-11 03:46:00,48.6,45.2,29.63,West,273,9.0,9.0,88,0.00,,,0.00,0.00,VWS V14.01,2013-02-11 08:46:00,
2013-02-11 03:47:00,48.5,45.1,29.63,WNW,284,7.0,7.0,88,0.00,,,0.00,0.00,VWS V14.01,2013-02-11 08:47:00,
2013-02-11 03:51:00,48.5,44.8,29.63,WNW,284,7.0,13.0,87,0.00,,,0.00,0.00,VWS V14.01,2013-02-11 08:51:00,
2013-02-11 03:52:00,48.5,44.8,29.63,NW,304,6.0,6.0,87,0.00,,,0.00,0.00,VWS V14.01,2013-02-11 08:52:00,
2013-02-11 03:56:00,48.7,44.1,29.63,West,262,6.0,6.0,84,0.00,,,0.00,0.00,VWS V14.01,2013-02-11 08:56:00,
2013-02-11 03:57:00,48.7,44.1,29.63,West,265,6.0,12.0,84,0.00,,,0.00,0.00,VWS V14.01,2013-02-11 08:57:00,
2013-02-11 03:58:00,48.8,43.9,29.63,NW,315,11.0,16.0,83,0.00,,,0.00,0.00,VWS V14.01,2013-02-11 08:58:00,
2013-02-11 04:01:00,48.9,44.0,29.63,WNW,296,8.0,14.0,83,0.00,,,0.00,0.00,VWS V14.01,2013-02-11 09:01:00,
2013-02-11 04:02:00,48.9,44.0,29.63,West,275,7.0,10.0,83,0.00,,,0.00,0.00,VWS V14.01,2013-02-11 09:02:00,
2013-02-11 04:03:00,48.9,44.0,29.63,NW,319,8.0,10.0,83,0.00,,,0.00,0.00,VWS V14.01,2013-02-11 09:03:00,
2013-02-11 04:06:00,48.9,44.0,29.63,WNW,298,7.0,14.0,83,0.00,,,0.00,0.00,VWS V14.01,2013-02-11 09:06:00,
2013-02-11 04:07:00,48.9,44.0,29.63,WNW,303,7.0,7.0,83,0.00,,,0.00,0.00,VWS V14.01,2013-02-11 09:07:00,
2013-02-11 04:08:00,48.9,44.3,29.63,West,267,14.0,16.0,84,0.00,,,0.00,0.00,VWS V14.01,2013-02-11 09:08:00,
2013-02-11 04:11:00,48.8,44.2,29.63,WNW,284,4.0,5.0,84,0.00,,,0.00,0.00,VWS V14.01,2013-02-11 09:11:00,
2013-02-11 04:12:00,48.8,44.5,29.63,West,277,5.0,7.0,85,0.00,,,0.00,0.00,VWS V14.01,2013-02-11 09:12:00,
2013-02-11 04:13:00,48.7,44.4,29.63,WNW,290,3.0,7.0,85,0.00,,,0.00,0.00,VWS V14.01,2013-02-11 09:13:00,
2013-02-11 04:16:00,48.5,44.5,29.63,WNW,282,5.0,11.0,86,0.00,,,0.00,0.00,VWS V14.01,2013-02-11 09:16:00,
2013-02-11 04:17:00,48.5,44.2,29.63,WNW,288,9.0,9.0,85,0.00,,,0.00,0.00,VWS V14.01,2013-02-11 09:17:00,
2013-02-11 04:18:00,48.5,44.2,29.63,West,268,11.0,12.0,85,0.00,,,0.00,0.00,VWS V14.01,2013-02-11 09:18:00,
2013-02-11 04:22:00,48.5,43.9,29.63,West,267,14.0,14.0,84,0.00,,,0.00,0.00,VWS V14.01,2013-02-11 09:22:00,
2013-02-11 04:23:00,48.5,43.9,29.63,WNW,294,12.0,18.0,84,0.00,,,0.00,0.00,VWS V14.01,2013-02-11 09:23:00,
2013-02-11 04:27:00,48.5,43.3,29.63,WNW,286,5.0,5.0,82,0.00,,,0.00,0.00,VWS V14.01,2013-02-11 09:27:00,
2013-02-11 04:28:00,48.5,43.3,29.63,West,267,15.0,15.0,82,0.00,,,0.00,0.00,VWS V14.01,2013-02-11 09:28:00,
2013-02-11 04:32:00,48.6,41.7,29.64,West,280,12.0,15.0,77,0.00,,,0.00,0.00,VWS V14.01,2013-02-11 09:32:00,
2013-02-11 04:33:00,48.7,41.8,29.64,West,269,8.0,13.0,77,0.00,,,0.00,0.00,VWS V14.01,2013-02-11 09:33:00,
2013-02-11 04:37:00,48.7,40.1,29.64,NNW,331,11.0,17.0,72,0.00,,,0.00,0.00,VWS V14.01,2013-02-11 09:37:00,
2013-02-11 04:38:00,48.8,39.8,29.64,NW,323,5.0,6.0,71,0.00,,,0.00,0.00,VWS V14.01,2013-02-11 09:38:00,
2013-02-11 04:42:00,48.5,39.5,29.64,WNW,296,6.0,9.0,71,0.00,,,0.00,0.00,VWS V14.01,2013-02-11 09:42:00,
2013-02-11 04:43:00,48.5,39.5,29.65,WNW,300,7.0,9.0,71,0.00,,,0.00,0.00,VWS V14.01,2013-02-11 09:43:00,
2013-02-11 04:47:00,48.1,39.9,29.65,NNW,330,5.0,7.0,73,0.00,,,0.00,0.00,VWS V14.01,2013-02-11 09:47:00,
2013-02-11 04:48:00,48.1,39.9,29.65,North,360,10.0,10.0,73,0.00,,,0.00,0.00,VWS V14.01,2013-02-11 09:48:00,
2013-02-11 04:52:00,47.4,38.5,29.66,North,360,10.0,18.0,71,0.00,,,0.00,0.00,VWS V14.01,2013-02-11 09:52:00,
2013-02-11 04:53:00,47.3,38.4,29.66,WNW,300,15.0,15.0,71,0.00,,,0.00,0.00,VWS V14.01,2013-02-11 09:53:00,
2013-02-11 04:54:00,47.2,38.3,29.66,WNW,298,12.0,15.0,71,0.00,,,0.00,0.00,VWS V14.01,2013-02-11 09:54:00,
2013-02-11 04:57:00,46.6,37.3,29.66,NNW,344,14.0,19.0,70,0.00,,,0.00,0.00,VWS V14.01,2013-02-11 09:57:00,
2013-02-11 04:58:00,46.5,36.9,29.66,North,350,8.0,9.0,69,0.00,,,0.00,0.00,VWS V14.01,2013-02-11 09:58:00,
2013-02-11 04:59:00,46.4,36.8,29.66,WNW,299,7.0,9.0,69,0.00,,,0.00,0.00,VWS V14.01,2013-02-11 09:59:00,
2013-02-11 05:02:00,46.0,36.8,29.66,NW,324,6.0,14.0,70,0.00,,,0.00,0.00,VWS V14.01,2013-02-11 10:02:00,
2013-02-11 05:03:00,46.0,36.8,29.66,NNW,331,16.0,22.0,70,0.00,,,0.00,0.00,VWS V14.01,2013-02-11 10:03:00,
2013-02-11 05:04:00,45.9,36.7,29.66,NW,306,8.0,22.0,70,0.00,,,0.00,0.00,VWS V14.01,2013-02-11 10:04:00,
2013-02-11 05:07:00,45.6,36.8,29.66,NW,326,7.0,11.0,71,0.00,,,0.00,0.00,VWS V14.01,2013-02-11 10:07:00,
2013-02-11 05:08:00,45.6,36.8,29.66,NW,322,7.0,13.0,71,0.00,,,0.00,0.00,VWS V14.01,2013-02-11 10:08:00,
2013-02-11 05:09:00,45.5,36.7,29.67,WNW,286,7.0,12.0,71,0.00,,,0.00,0.00,VWS V14.01,2013-02-11 10:09:00,
2013-02-11 05:12:00,45.3,36.8,29.67,NNW,342,4.0,13.0,72,0.00,,,0.00,0.00,VWS V14.01,2013-02-11 10:12:00,
2013-02-11 05:13:00,45.2,36.7,29.67,NW,325,6.0,7.0,72,0.00,,,0.00,0.00,VWS V14.01,2013-02-11 10:13:00,
2013-02-11 05:14:00,45.2,36.7,29.67,North,351,6.0,7.0,72,0.00,,,0.00,0.00,VWS V14.01,2013-02-11 10:14:00,
2013-02-11 05:17:00,44.6,36.2,29.67,North,360,8.0,9.0,72,0.00,,,0.00,0.00,VWS V14.01,2013-02-11 10:17:00,
2013-02-11 05:19:00,44.3,35.5,29.67,NW,317,7.0,14.0,71,0.00,,,0.00,0.00,VWS V14.01,2013-02-11 10:19:00,
2013-02-11 05:22:00,43.3,34.5,29.68,NNW,327,4.0,11.0,71,0.00,,,0.00,0.00,VWS V14.01,2013-02-11 10:22:00,
2013-02-11 05:23:00,43.3,34.5,29.68,NNW,327,4.0,11.0,71,0.00,,,0.00,0.00,VWS V14.01,2013-02-11 10:23:00,
2013-02-11 05:24:00,43.1,34.7,29.68,NNW,346,8.0,15.0,72,0.00,,,0.00,0.00,VWS V14.01,2013-02-11 10:24:00,
2013-02-11 05:27:00,42.6,34.6,29.68,North,360,4.0,8.0,73,0.00,,,0.00,0.00,VWS V14.01,2013-02-11 10:27:00,
2013-02-11 05:28:00,42.6,34.6,29.68,NNW,333,5.0,8.0,73,0.00,,,0.00,0.00,VWS V14.01,2013-02-11 10:28:00,
2013-02-11 05:29:00,42.5,34.5,29.68,NNW,345,6.0,6.0,73,0.00,,,0.00,0.00,VWS V14.01,2013-02-11 10:29:00,
2013-02-11 05:32:00,42.2,34.5,29.68,NNW,332,6.0,7.0,74,0.00,,,0.00,0.00,VWS V14.01,2013-02-11 10:32:00,
2013-02-11 05:33:00,42.2,34.5,29.68,NNW,336,6.0,7.0,74,0.00,,,0.00,0.00,VWS V14.01,2013-02-11 10:33:00,
2013-02-11 05:34:00,42.1,34.4,29.68,North,355,10.0,10.0,74,0.00,,,0.00,0.00,VWS V14.01,2013-02-11 10:34:00,
2013-02-11 05:38:00,41.9,34.2,29.68,NNW,331,6.0,16.0,74,0.00,,,0.00,0.00,VWS V14.01,2013-02-11 10:38:00,
2013-02-11 05:39:00,41.9,34.6,29.68,NNW,327,7.0,8.0,75,0.00,,,0.00,0.00,VWS V14.01,2013-02-11 10:39:00,
2013-02-11 05:43:00,41.7,34.4,29.69,NNW,346,11.0,16.0,75,0.00,,,0.00,0.00,VWS V14.01,2013-02-11 10:43:00,
2013-02-11 05:44:00,41.7,34.7,29.69,NNE,13,15.0,15.0,76,0.00,,,0.00,0.00,VWS V14.01,2013-02-11 10:44:00,
2013-02-11 05:48:00,41.6,34.9,29.69,NW,325,6.0,6.0,77,0.00,,,0.00,0.00,VWS V14.01,2013-02-11 10:48:00,
2013-02-11 05:49:00,41.5,34.8,29.69,NNW,333,10.0,15.0,77,0.00,,,0.00,0.00,VWS V14.01,2013-02-11 10:49:00,
2013-02-11 05:53:00,41.5,35.2,29.69,North,5,7.0,9.0,78,0.00,,,0.00,0.00,VWS V14.01,2013-02-11 10:53:00,
2013-02-11 05:54:00,41.6,35.3,29.69,WNW,296,6.0,7.0,78,0.00,,,0.00,0.00,VWS V14.01,2013-02-11 10:54:00,
2013-02-11 05:58:00,41.8,34.8,29.69,NNW,328,6.0,15.0,76,0.00,,,0.00,0.00,VWS V14.01,2013-02-11 10:58:00,
2013-02-11 05:59:00,41.8,34.5,29.70,North,351,9.0,12.0,75,0.00,,,0.00,0.00,VWS V14.01,2013-02-11 10:59:00,
2013-02-11 06:03:00,41.9,34.2,29.69,NW,323,9.0,11.0,74,0.00,,,0.00,0.00,VWS V14.01,2013-02-11 11:03:00,
2013-02-11 06:04:00,41.9,33.9,29.69,NW,304,15.0,15.0,73,0.00,,,0.00,0.00,VWS V14.01,2013-02-11 11:04:00,
2013-02-11 06:05:00,41.8,33.8,29.69,NW,321,5.0,17.0,73,0.00,,,0.00,0.00,VWS V14.01,2013-02-11 11:05:00,
2013-02-11 06:08:00,41.8,33.1,29.70,NW,313,10.0,16.0,71,0.00,,,0.00,0.00,VWS V14.01,2013-02-11 11:08:00,
2013-02-11 06:09:00,41.8,33.1,29.70,NW,315,8.0,8.0,71,0.00,,,0.00,0.00,VWS V14.01,2013-02-11 11:09:00,
2013-02-11 06:10:00,41.8,33.1,29.70,NW,317,4.0,5.0,71,0.00,,,0.00,0.00,VWS V14.01,2013-02-11 11:10:00,
2013-02-11 06:13:00,41.6,33.3,29.70,NNW,335,4.0,8.0,72,0.00,,,0.00,0.00,VWS V14.01,2013-02-11 11:13:00,
2013-02-11 06:14:00,41.5,33.2,29.70,NW,314,7.0,9.0,72,0.00,,,0.00,0.00,VWS V14.01,2013-02-11 11:14:00,
2013-02-11 06:15:00,41.5,33.2,29.70,NW,315,6.0,6.0,72,0.00,,,0.00,0.00,VWS V14.01,2013-02-11 11:15:00,
2013-02-11 06:18:00,41.4,33.1,29.71,NNW,329,5.0,17.0,72,0.00,,,0.00,0.00,VWS V14.01,2013-02-11 11:18:00,
2013-02-11 06:19:00,41.3,33.0,29.70,NNW,336,8.0,13.0,72,0.00,,,0.00,0.00,VWS V14.01,2013-02-11 11:19:00,
2013-02-11 06:20:00,41.3,33.3,29.70,NW,320,7.0,7.0,73,0.00,,,0.00,0.00,VWS V14.01,2013-02-11 11:20:00,
2013-02-11 06:23:00,41.2,32.9,29.70,WNW,294,10.0,14.0,72,0.00,,,0.00,0.00,VWS V14.01,2013-02-11 11:23:00,
2013-02-11 06:24:00,41.2,32.9,29.71,NW,324,8.0,9.0,72,0.00,,,0.00,0.00,VWS V14.01,2013-02-11 11:24:00,
2013-02-11 06:25:00,41.2,32.9,29.71,NW,321,6.0,6.0,72,0.00,,,0.00,0.00,VWS V14.01,2013-02-11 11:25:00,
2013-02-11 06:28:00,41.1,33.1,29.71,NW,309,7.0,10.0,73,0.00,,,0.00,0.00,VWS V14.01,2013-02-11 11:28:00,
2013-02-11 06:29:00,41.0,33.0,29.71,North,355,9.0,9.0,73,0.00,,,0.00,0.00,VWS V14.01,2013-02-11 11:29:00,
2013-02-11 06:30:00,41.0,33.0,29.71,NNW,331,8.0,9.0,73,0.00,,,0.00,0.00,VWS V14.01,2013-02-11 11:30:00,
2013-02-11 06:33:00,40.9,32.9,29.71,NW,308,5.0,11.0,73,0.00,,,0.00,0.00,VWS V14.01,2013-02-11 11:33:00,
2013-02-11 06:34:00,40.8,32.8,29.71,WNW,300,4.0,7.0,73,0.00,,,0.00,0.00,VWS V14.01,2013-02-11 11:34:00,
2013-02-11 06:35:00,40.8,32.8,29.71,WNW,302,7.0,10.0,73,0.00,,,0.00,0.00,VWS V14.01,2013-02-11 11:35:00,
2013-02-11 06:38:00,40.6,33.0,29.72,NW,326,8.0,13.0,74,0.00,,,0.00,0.00,VWS V14.01,2013-02-11 11:38:00,
2013-02-11 06:39:00,40.5,32.9,29.72,NW,310,8.0,16.0,74,0.00,,,0.00,0.00,VWS V14.01,2013-02-11 11:39:00,
2013-02-11 06:41:00,40.5,32.5,29.72,West,281,11.0,23.0,73,0.00,,,0.00,0.00,VWS V14.01,2013-02-11 11:41:00,
2013-02-11 06:43:00,40.6,32.6,29.71,NW,319,9.0,17.0,73,0.00,,,0.00,0.00,VWS V14.01,2013-02-11 11:43:00,
2013-02-11 06:44:00,40.6,32.6,29.72,NNW,327,6.0,14.0,73,0.00,,,0.00,0.00,VWS V14.01,2013-02-11 11:44:00,
2013-02-11 06:46:00,40.6,32.6,29.72,WNW,286,7.0,10.0,73,0.00,,,0.00,0.00,VWS V14.01,2013-02-11 11:46:00,
2013-02-11 06:48:00,40.6,32.6,29.71,WNW,286,14.0,14.0,73,0.00,,,0.00,0.00,VWS V14.01,2013-02-11 11:48:00,
2013-02-11 06:49:00,40.5,32.5,29.72,NW,309,11.0,16.0,73,0.00,,,0.00,0.00,VWS V14.01,2013-02-11 11:49:00,
2013-02-11 06:51:00,40.5,32.2,29.72,WNW,296,15.0,19.0,72,0.00,,,0.00,0.00,VWS V14.01,2013-02-11 11:51:00,
2013-02-11 06:53:00,40.6,32.0,29.71,West,277,15.0,19.0,71,0.00,,,0.00,0.00,VWS V14.01,2013-02-11 11:53:00,
2013-02-11 06:54:00,40.6,32.3,29.71,NW,320,12.0,14.0,72,0.00,,,0.00,0.00,VWS V14.01,2013-02-11 11:54:00,
2013-02-11 06:56:00,40.6,32.0,29.72,NW,323,6.0,22.0,71,0.00,,,0.00,0.00,VWS V14.01,2013-02-11 11:56:00,
2013-02-11 06:58:00,40.6,32.3,29.72,West,272,7.0,15.0,72,0.00,,,0.00,0.00,VWS V14.01,2013-02-11 11:58:00,
2013-02-11 06:59:00,40.6,32.3,29.72,WNW,300,5.0,11.0,72,0.00,,,0.00,0.00,VWS V14.01,2013-02-11 11:59:00,
2013-02-11 07:01:00,40.6,32.3,29.71,NW,314,6.0,10.0,72,0.00,,,0.00,0.00,VWS V14.01,2013-02-11 12:01:00,
2013-02-11 07:03:00,40.5,32.2,29.72,NNW,328,6.0,10.0,72,0.00,,,0.00,0.00,VWS V14.01,2013-02-11 12:03:00,
2013-02-11 07:04:00,40.5,32.2,29.71,NW,310,9.0,10.0,72,0.00,,,0.00,0.00,VWS V14.01,2013-02-11 12:04:00,
2013-02-11 07:05:00,40.5,32.2,29.72,NNW,347,9.0,16.0,72,0.00,,,0.00,0.00,VWS V14.01,2013-02-11 12:05:00,
2013-02-11 07:06:00,40.5,32.2,29.71,NW,317,6.0,15.0,72,0.00,,,0.00,0.00,VWS V14.01,2013-02-11 12:06:00,
2013-02-11 07:08:00,40.4,32.4,29.72,WNW,286,9.0,15.0,73,0.00,,,0.00,0.00,VWS V14.01,2013-02-11 12:08:00,
2013-02-11 07:09:00,40.4,32.4,29.72,NW,320,4.0,15.0,73,0.00,,,0.00,0.00,VWS V14.01,2013-02-11 12:09:00,
2013-02-11 07:10:00,40.4,32.4,29.72,North,360,7.0,16.0,73,0.00,,,0.00,0.00,VWS V14.01,2013-02-11 12:10:00,
2013-02-11 07:11:00,40.4,32.4,29.72,WNW,298,6.0,14.0,73,0.00,,,0.00,0.00,VWS V14.01,2013-02-11 12:11:00,
2013-02-11 07:13:00,40.4,32.4,29.72,WNW,282,17.0,17.0,73,0.00,,,0.00,0.00,VWS V14.01,2013-02-11 12:13:00,
2013-02-11 07:14:00,40.4,32.4,29.72,NW,312,8.0,17.0,73,0.00,,,0.00,0.00,VWS V14.01,2013-02-11 12:14:00,
2013-02-11 07:15:00,40.3,32.3,29.72,NW,325,5.0,15.0,73,0.00,,,0.00,0.00,VWS V14.01,2013-02-11 12:15:00,
2013-02-11 07:16:00,40.3,32.7,29.72,WNW,284,3.0,8.0,74,0.00,,,0.00,0.00,VWS V14.01,2013-02-11 12:16:00,
2013-02-11 07:18:00,40.3,32.7,29.72,NW,319,4.0,12.0,74,0.00,,,0.00,0.00,VWS V14.01,2013-02-11 12:18:00,
2013-02-11 07:19:00,40.2,32.6,29.72,NW,311,8.0,11.0,74,0.00,,,0.00,0.00,VWS V14.01,2013-02-11 12:19:00,
2013-02-11 07:20:00,40.2,32.6,29.72,NW,309,7.0,16.0,74,0.00,,,0.00,0.00,VWS V14.01,2013-02-11 12:20:00,
2013-02-11 07:21:00,40.2,32.6,29.72,NW,312,3.0,9.0,74,0.00,,,0.00,0.00,VWS V14.01,2013-02-11 12:21:00,
2013-02-11 07:23:00,40.2,32.9,29.72,WNW,296,7.0,12.0,75,0.00,,,0.00,0.00,VWS V14.01,2013-02-11 12:23:00,
2013-02-11 07:24:00,40.2,32.9,29.72,WNW,287,7.0,10.0,75,0.00,,,0.00,0.00,VWS V14.01,2013-02-11 12:24:00,
2013-02-11 07:25:00,40.1,32.8,29.72,NW,313,6.0,7.0,75,0.00,,,0.00,0.00,VWS V14.01,2013-02-11 12:25:00,
2013-02-11 07:26:00,40.1,32.8,29.72,NW,308,4.0,4.0,75,0.00,,,0.00,0.00,VWS V14.01,2013-02-11 12:26:00,
2013-02-11 07:28:00,40.0,32.7,29.72,WNW,300,9.0,11.0,75,0.00,,,0.00,0.00,VWS V14.01,2013-02-11 12:28:00,
2013-02-11 07:29:00,40.0,33.1,29.72,WNW,285,15.0,15.0,76,0.00,,,0.00,0.00,VWS V14.01,2013-02-11 12:29:00,
2013-02-11 07:30:00,40.0,32.7,29.73,NW,306,7.0,7.0,75,0.00,,,0.00,0.00,VWS V14.01,2013-02-11 12:30:00,
2013-02-11 07:31:00,40.0,33.1,29.72,NNW,336,4.0,7.0,76,0.00,,,0.00,0.00,VWS V14.01,2013-02-11 12:31:00,
2013-02-11 07:33:00,39.9,33.0,29.73,NW,312,10.0,19.0,76,0.00,,,0.00,0.00,VWS V14.01,2013-02-11 12:33:00,
2013-02-11 07:34:00,39.9,33.0,29.73,WNW,293,11.0,11.0,76,0.00,,,0.00,0.00,VWS V14.01,2013-02-11 12:34:00,
2013-02-11 07:35:00,39.8,32.9,29.73,NNW,333,9.0,9.0,76,0.00,,,0.00,0.00,VWS V14.01,2013-02-11 12:35:00,
2013-02-11 07:36:00,39.8,32.5,29.73,NW,311,11.0,12.0,75,0.00,,,0.00,0.00,VWS V14.01,2013-02-11 12:36:00,
2013-02-11 07:38:00,39.6,32.0,29.73,NNW,334,9.0,15.0,74,0.00,,,0.00,0.00,VWS V14.01,2013-02-11 12:38:00,
2013-02-11 07:39:00,39.5,31.9,29.73,NW,314,7.0,9.0,74,0.00,,,0.00,0.00,VWS V14.01,2013-02-11 12:39:00,
2013-02-11 07:40:00,39.4,31.8,29.73,NW,319,10.0,10.0,74,0.00,,,0.00,0.00,VWS V14.01,2013-02-11 12:40:00,
2013-02-11 07:41:00,39.3,31.7,29.73,NW,305,12.0,17.0,74,0.00,,,0.00,0.00,VWS V14.01,2013-02-11 12:41:00,
2013-02-11 07:43:00,39.1,31.2,29.74,NW,307,9.0,12.0,73,0.00,,,0.00,0.00,VWS V14.01,2013-02-11 12:43:00,
2013-02-11 07:44:00,39.0,31.1,29.74,NW,317,10.0,11.0,73,0.00,,,0.00,0.00,VWS V14.01,2013-02-11 12:44:00,
2013-02-11 07:45:00,38.9,30.7,29.74,NW,324,7.0,7.0,72,0.00,,,0.00,0.00,VWS V14.01,2013-02-11 12:45:00,
2013-02-11 07:46:00,38.9,30.7,29.74,NW,314,11.0,15.0,72,0.00,,,0.00,0.00,VWS V14.01,2013-02-11 12:46:00,
2013-02-11 07:48:00,38.7,30.5,29.74,NW,312,6.0,14.0,72,0.00,,,0.00,0.00,VWS V14.01,2013-02-11 12:48:00,
2013-02-11 07:49:00,38.7,30.1,29.74,NW,319,7.0,8.0,71,0.00,,,0.00,0.00,VWS V14.01,2013-02-11 12:49:00,
2013-02-11 07:50:00,38.6,30.4,29.74,WNW,300,24.0,30.0,72,0.00,,,0.00,0.00,VWS V14.01,2013-02-11 12:50:00,
2013-02-11 07:51:00,38.5,29.6,29.75,North,360,13.0,13.0,70,0.00,,,0.00,0.00,VWS V14.01,2013-02-11 12:51:00,
2013-02-11 07:53:00,38.4,29.5,29.74,NNW,333,7.0,15.0,70,0.00,,,0.00,0.00,VWS V14.01,2013-02-11 12:53:00,
2013-02-11 07:54:00,38.3,29.4,29.75,NW,304,7.0,12.0,70,0.00,,,0.00,0.00,VWS V14.01,2013-02-11 12:54:00,
2013-02-11 07:55:00,38.3,29.4,29.75,NW,313,11.0,23.0,70,0.00,,,0.00,0.00,VWS V14.01,2013-02-11 12:55:00,
2013-02-11 07:56:00,38.2,29.3,29.75,NNW,331,8.0,9.0,70,0.00,,,0.00,0.00,VWS V14.01,2013-02-11 12:56:00,
2013-02-11 07:58:00,38.1,29.2,29.75,NW,311,7.0,13.0,70,0.00,,,0.00,0.00,VWS V14.01,2013-02-11 12:58:00,
2013-02-11 07:59:00,38.0,29.1,29.75,NW,323,6.0,13.0,70,0.00,,,0.00,0.00,VWS V14.01,2013-02-11 12:59:00,
2013-02-11 08:00:00,38.0,29.1,29.75,NW,321,10.0,10.0,70,0.00,,,0.00,0.00,VWS V14.01,2013-02-11 13:00:00,
2013-02-11 08:01:00,37.9,29.0,29.75,NW,311,4.0,7.0,70,0.00,,,0.00,0.00,VWS V14.01,2013-02-11 13:01:00,
2013-02-11 08:03:00,37.9,29.4,29.75,WNW,296,11.0,11.0,71,0.00,,,0.00,0.00,VWS V14.01,2013-02-11 13:03:00,
2013-02-11 08:04:00,37.8,29.3,29.75,NW,315,9.0,10.0,71,0.00,,,0.00,0.00,VWS V14.01,2013-02-11 13:04:00,
2013-02-11 08:05:00,37.8,29.3,29.75,NW,307,9.0,15.0,71,0.00,,,0.00,0.00,VWS V14.01,2013-02-11 13:05:00,
2013-02-11 08:06:00,37.7,29.2,29.75,West,259,14.0,14.0,71,0.00,,,0.00,0.00,VWS V14.01,2013-02-11 13:06:00,
2013-02-11 08:08:00,37.7,29.2,29.75,WNW,296,6.0,17.0,71,0.00,,,0.00,0.00,VWS V14.01,2013-02-11 13:08:00,
2013-02-11 08:09:00,37.6,29.1,29.75,WNW,298,12.0,22.0,71,0.00,,,0.00,0.00,VWS V14.01,2013-02-11 13:09:00,
2013-02-11 08:10:00,37.6,29.1,29.75,NW,311,8.0,10.0,71,0.00,,,0.00,0.00,VWS V14.01,2013-02-11 13:10:00,
2013-02-11 08:11:00,37.5,28.6,29.75,WNW,292,11.0,13.0,70,0.00,,,0.00,0.00,VWS V14.01,2013-02-11 13:11:00,
2013-02-11 08:13:00,37.5,28.6,29.75,WNW,296,4.0,6.0,70,0.00,,,0.00,0.00,VWS V14.01,2013-02-11 13:13:00,
2013-02-11 08:15:00,37.5,29.0,29.75,NW,320,5.0,14.0,71,0.00,,,0.00,0.00,VWS V14.01,2013-02-11 13:15:00,
2013-02-11 08:16:00,37.4,28.9,29.76,NW,311,7.0,10.0,71,0.00,,,0.00,0.00,VWS V14.01,2013-02-11 13:16:00,
2013-02-11 08:18:00,37.4,28.9,29.75,WNW,302,8.0,14.0,71,0.00,,,0.00,0.00,VWS V14.01,2013-02-11 13:18:00,
2013-02-11 08:20:00,37.4,28.9,29.76,WNW,296,16.0,17.0,71,0.00,,,0.00,0.00,VWS V14.01,2013-02-11 13:20:00,
2013-02-11 08:21:00,37.5,28.6,29.76,WNW,296,5.0,6.0,70,0.00,,,0.00,0.00,VWS V14.01,2013-02-11 13:21:00,
2013-02-11 08:23:00,37.4,28.5,29.76,NW,311,10.0,12.0,70,0.00,,,0.00,0.00,VWS V14.01,2013-02-11 13:23:00,
2013-02-11 08:25:00,37.4,28.5,29.76,NNW,345,10.0,19.0,70,0.00,,,0.00,0.00,VWS V14.01,2013-02-11 13:25:00,
2013-02-11 08:26:00,37.4,28.9,29.76,WNW,297,8.0,14.0,71,0.00,,,0.00,0.00,VWS V14.01,2013-02-11 13:26:00,
2013-02-11 08:28:00,37.4,28.9,29.76,NW,321,6.0,10.0,71,0.00,,,0.00,0.00,VWS V14.01,2013-02-11 13:28:00,
2013-02-11 08:30:00,37.4,28.9,29.76,NNW,338,8.0,10.0,71,0.00,,,0.00,0.00,VWS V14.01,2013-02-11 13:30:00,
2013-02-11 08:31:00,37.4,28.9,29.76,WNW,302,6.0,14.0,71,0.00,,,0.00,0.00,VWS V14.01,2013-02-11 13:31:00,
2013-02-11 08:33:00,37.4,28.9,29.76,NW,318,5.0,9.0,71,0.00,,,0.00,0.00,VWS V14.01,2013-02-11 13:33:00,
2013-02-11 08:35:00,37.3,28.8,29.76,NNW,340,7.0,13.0,71,0.00,,,0.00,0.00,VWS V14.01,2013-02-11 13:35:00,
2013-02-11 08:37:00,37.4,28.9,29.76,NNW,337,7.0,19.0,71,0.00,,,0.00,0.00,VWS V14.01,2013-02-11 13:37:00,
2013-02-11 08:38:00,37.3,28.8,29.76,NW,322,12.0,18.0,71,0.00,,,0.00,0.00,VWS V14.01,2013-02-11 13:38:00,
2013-02-11 08:40:00,37.4,28.9,29.76,NW,310,6.0,12.0,71,0.00,,,0.00,0.00,VWS V14.01,2013-02-11 13:40:00,
2013-02-11 08:42:00,37.3,28.8,29.76,NW,317,7.0,11.0,71,0.00,,,0.00,0.00,VWS V14.01,2013-02-11 13:42:00,
2013-02-11 08:43:00,37.3,28.8,29.76,NW,317,8.0,19.0,71,0.00,,,0.00,0.00,VWS V14.01,2013-02-11 13:43:00,
2013-02-11 08:45:00,37.4,28.9,29.76,NW,311,15.0,15.0,71,0.00,,,0.00,0.00,VWS V14.01,2013-02-11 13:45:00,
2013-02-11 08:47:00,37.4,28.9,29.76,West,273,6.0,11.0,71,0.00,,,0.00,0.00,VWS V14.01,2013-02-11 13:47:00,
2013-02-11 08:48:00,37.3,29.1,29.76,West,263,9.0,13.0,72,0.00,,,0.00,0.00,VWS V14.01,2013-02-11 13:48:00,
2013-02-11 08:50:00,37.3,29.1,29.77,NNW,332,6.0,9.0,72,0.00,,,0.00,0.00,VWS V14.01,2013-02-11 13:50:00,
2013-02-11 08:52:00,37.3,28.8,29.77,West,279,13.0,21.0,71,0.00,,,0.00,0.00,VWS V14.01,2013-02-11 13:52:00,
2013-02-11 08:54:00,37.3,29.1,29.77,NW,319,13.0,17.0,72,0.00,,,0.00,0.00,VWS V14.01,2013-02-11 13:54:00,
2013-02-11 08:55:00,37.3,29.1,29.77,WNW,302,6.0,12.0,72,0.00,,,0.00,0.00,VWS V14.01,2013-02-11 13:55:00,
2013-02-11 08:57:00,37.3,29.1,29.77,WNW,288,10.0,15.0,72,0.00,,,0.00,0.00,VWS V14.01,2013-02-11 13:57:00,
2013-02-11 08:58:00,37.3,29.1,29.77,WNW,298,7.0,12.0,72,0.00,,,0.00,0.00,VWS V14.01,2013-02-11 13:58:00,
2013-02-11 09:00:00,37.3,29.1,29.76,West,268,11.0,11.0,72,0.00,,,0.00,0.00,VWS V14.01,2013-02-11 14:00:00,
2013-02-11 09:02:00,37.2,29.4,29.77,WNW,302,10.0,18.0,73,0.00,,,0.00,0.00,VWS V14.01,2013-02-11 14:02:00,
2013-02-11 09:03:00,37.2,29.4,29.77,WNW,300,6.0,10.0,73,0.00,,,0.00,0.00,VWS V14.01,2013-02-11 14:03:00,
2013-02-11 09:05:00,37.2,29.4,29.76,West,271,11.0,16.0,73,0.00,,,0.00,0.00,VWS V14.01,2013-02-11 14:05:00,
2013-02-11 09:07:00,37.2,29.4,29.77,NW,319,8.0,11.0,73,0.00,,,0.00,0.00,VWS V14.01,2013-02-11 14:07:00,
2013-02-11 09:09:00,37.2,29.4,29.77,NNW,327,11.0,17.0,73,0.00,,,0.00,0.00,VWS V14.01,2013-02-11 14:09:00,
2013-02-11 09:10:00,37.1,29.3,29.77,NW,319,7.0,13.0,73,0.00,,,0.00,0.00,VWS V14.01,2013-02-11 14:10:00,
2013-02-11 09:12:00,37.1,29.3,29.76,NW,307,10.0,15.0,73,0.00,,,0.00,0.00,VWS V14.01,2013-02-11 14:12:00,
2013-02-11 09:14:00,37.1,28.9,29.77,NW,316,6.0,11.0,72,0.00,,,0.00,0.00,VWS V14.01,2013-02-11 14:14:00,
2013-02-11 09:15:00,37.1,29.3,29.77,WNW,300,5.0,6.0,73,0.00,,,0.00,0.00,VWS V14.01,2013-02-11 14:15:00,
2013-02-11 09:17:00,37.1,29.3,29.77,NNW,330,7.0,17.0,73,0.00,,,0.00,0.00,VWS V14.01,2013-02-11 14:17:00,
2013-02-11 09:19:00,37.1,29.3,29.77,North,360,12.0,12.0,73,0.00,,,0.00,0.00,VWS V14.01,2013-02-11 14:19:00,
2013-02-11 09:20:00,37.0,29.2,29.77,West,281,5.0,7.0,73,0.00,,,0.00,0.00,VWS V14.01,2013-02-11 14:20:00,
2013-02-11 09:21:00,37.0,29.2,29.77,WNW,284,4.0,7.0,73,0.00,,,0.00,0.00,VWS V14.01,2013-02-11 14:21:00,
2013-02-11 09:22:00,37.0,29.5,29.77,North,5,8.0,8.0,74,0.00,,,0.00,0.00,VWS V14.01,2013-02-11 14:22:00,
2013-02-11 09:24:00,36.9,29.4,29.78,NNW,333,8.0,8.0,74,0.00,,,0.00,0.00,VWS V14.01,2013-02-11 14:24:00,
2013-02-11 09:25:00,36.9,29.4,29.78,NW,313,7.0,10.0,74,0.00,,,0.00,0.00,VWS V14.01,2013-02-11 14:25:00,
2013-02-11 09:26:00,36.9,29.4,29.78,NW,304,7.0,10.0,74,0.00,,,0.00,0.00,VWS V14.01,2013-02-11 14:26:00,
2013-02-11 09:27:00,36.8,29.3,29.77,NNW,331,14.0,14.0,74,0.00,,,0.00,0.00,VWS V14.01,2013-02-11 14:27:00,
2013-02-11 09:29:00,36.7,29.2,29.78,North,355,10.0,10.0,74,0.00,,,0.00,0.00,VWS V14.01,2013-02-11 14:29:00,
2013-02-11 09:30:00,36.6,29.1,29.78,NNW,344,14.0,14.0,74,0.00,,,0.00,0.00,VWS V14.01,2013-02-11 14:30:00,
2013-02-11 09:31:00,36.6,29.1,29.78,NW,321,3.0,14.0,74,0.00,,,0.00,0.00,VWS V14.01,2013-02-11 14:31:00,
2013-02-11 09:32:00,36.6,28.8,29.78,NNW,336,10.0,10.0,73,0.00,,,0.00,0.00,VWS V14.01,2013-02-11 14:32:00,
2013-02-11 09:34:00,36.5,28.7,29.78,WNW,295,4.0,6.0,73,0.00,,,0.00,0.00,VWS V14.01,2013-02-11 14:34:00,
2013-02-11 09:35:00,36.5,28.7,29.78,NNW,333,3.0,8.0,73,0.00,,,0.00,0.00,VWS V14.01,2013-02-11 14:35:00,
2013-02-11 09:36:00,36.5,28.7,29.78,NNW,340,3.0,5.0,73,0.00,,,0.00,0.00,VWS V14.01,2013-02-11 14:36:00,
2013-02-11 09:37:00,36.5,28.7,29.78,NW,323,11.0,11.0,73,0.00,,,0.00,0.00,VWS V14.01,2013-02-11 14:37:00,
2013-02-11 09:39:00,36.5,28.7,29.78,NW,313,6.0,9.0,73,0.00,,,0.00,0.00,VWS V14.01,2013-02-11 14:39:00,
2013-02-11 09:40:00,36.5,28.7,29.79,NW,309,6.0,7.0,73,0.00,,,0.00,0.00,VWS V14.01,2013-02-11 14:40:00,
2013-02-11 09:41:00,36.5,29.0,29.78,North,355,6.0,6.0,74,0.00,,,0.00,0.00,VWS V14.01,2013-02-11 14:41:00,
2013-02-11 09:42:00,36.4,28.6,29.79,NNW,328,9.0,9.0,73,0.00,,,0.00,0.00,VWS V14.01,2013-02-11 14:42:00,
2013-02-11 09:44:00,36.5,29.0,29.78,NNW,338,5.0,7.0,74,0.00,,,0.00,0.00,VWS V14.01,2013-02-11 14:44:00,
2013-02-11 09:45:00,36.4,28.9,29.78,WNW,296,2.0,7.0,74,0.00,,,0.00,0.00,VWS V14.01,2013-02-11 14:45:00,
2013-02-11 09:46:00,36.5,29.0,29.79,WNW,296,3.0,3.0,74,0.00,,,0.00,0.00,VWS V14.01,2013-02-11 14:46:00,
2013-02-11 09:47:00,36.4,28.9,29.78,WNW,302,4.0,4.0,74,0.00,,,0.00,0.00,VWS V14.01,2013-02-11 14:47:00,
2013-02-11 09:49:00,36.5,28.7,29.79,NNW,338,9.0,12.0,73,0.00,,,0.00,0.00,VWS V14.01,2013-02-11 14:49:00,
2013-02-11 09:50:00,36.5,28.7,29.79,NW,311,2.0,10.0,73,0.00,,,0.00,0.00,VWS V14.01,2013-02-11 14:50:00,
2013-02-11 09:51:00,36.5,29.0,29.79,NW,323,5.0,8.0,74,0.00,,,0.00,0.00,VWS V14.01,2013-02-11 14:51:00,
2013-02-11 09:52:00,36.5,28.7,29.79,NNW,333,4.0,9.0,73,0.00,,,0.00,0.00,VWS V14.01,2013-02-11 14:52:00,
2013-02-11 09:54:00,36.5,28.7,29.79,West,275,10.0,10.0,73,0.00,,,0.00,0.00,VWS V14.01,2013-02-11 14:54:00,
2013-02-11 09:55:00,36.5,28.7,29.79,NNW,330,10.0,12.0,73,0.00,,,0.00,0.00,VWS V14.01,2013-02-11 14:55:00,
2013-02-11 09:56:00,36.5,28.4,29.79,NW,317,6.0,12.0,72,0.00,,,0.00,0.00,VWS V14.01,2013-02-11 14:56:00,
2013-02-11 09:57:00,36.5,28.4,29.79,NNW,338,21.0,24.0,72,0.00,,,0.00,0.00,VWS V14.01,2013-02-11 14:57:00,
2013-02-11 09:59:00,36.5,28.4,29.79,NNW,327,6.0,8.0,72,0.00,,,0.00,0.00,VWS V14.01,2013-02-11 14:59:00,
2013-02-11 10:00:00,36.5,28.4,29.79,NW,325,6.0,13.0,72,0.00,,,0.00,0.00,VWS V14.01,2013-02-11 15:00:00,
2013-02-11 10:01:00,36.5,28.4,29.79,North,349,8.0,13.0,72,0.00,,,0.00,0.00,VWS V14.01,2013-02-11 15:01:00,
2013-02-11 10:02:00,36.5,28.0,29.79,WNW,301,7.0,13.0,71,0.00,,,0.00,0.00,VWS V14.01,2013-02-11 15:02:00,
2013-02-11 10:05:00,36.5,28.4,29.79,NNW,331,5.0,12.0,72,0.00,,,0.00,0.00,VWS V14.01,2013-02-11 15:05:00,
2013-02-11 10:06:00,36.5,28.0,29.79,WNW,298,9.0,9.0,71,0.00,,,0.00,0.00,VWS V14.01,2013-02-11 15:06:00,
2013-02-11 10:07:00,36.5,28.4,29.79,WNW,295,7.0,9.0,72,0.00,,,0.00,0.00,VWS V14.01,2013-02-11 15:07:00,
2013-02-11 10:10:00,36.5,28.0,29.79,WNW,302,9.0,11.0,71,0.00,,,0.00,0.00,VWS V14.01,2013-02-11 15:10:00,
2013-02-11 10:11:00,36.5,28.4,29.79,NNW,332,7.0,12.0,72,0.00,,,0.00,0.00,VWS V14.01,2013-02-11 15:11:00,
2013-02-11 10:12:00,36.4,28.2,29.79,NW,323,7.0,13.0,72,0.00,,,0.00,0.00,VWS V14.01,2013-02-11 15:12:00,
2013-02-11 10:15:00,36.4,28.2,29.80,NW,325,10.0,15.0,72,0.00,,,0.00,0.00,VWS V14.01,2013-02-11 15:15:00,
2013-02-11 10:16:00,36.4,28.2,29.80,WNW,290,14.0,16.0,72,0.00,,,0.00,0.00,VWS V14.01,2013-02-11 15:16:00,
2013-02-11 10:17:00,36.4,28.2,29.80,NW,314,7.0,9.0,72,0.00,,,0.00,0.00,VWS V14.01,2013-02-11 15:17:00,
2013-02-11 10:20:00,36.4,28.6,29.80,WNW,301,9.0,9.0,73,0.00,,,0.00,0.00,VWS V14.01,2013-02-11 15:20:00,
2013-02-11 10:21:00,36.4,28.6,29.80,West,281,11.0,18.0,73,0.00,,,0.00,0.00,VWS V14.01,2013-02-11 15:21:00,
2013-02-11 10:22:00,36.3,28.1,29.80,WNW,295,7.0,10.0,72,0.00,,,0.00,0.00,VWS V14.01,2013-02-11 15:22:00,
2013-02-11 10:25:00,36.3,28.1,29.80,WNW,285,13.0,16.0,72,0.00,,,0.00,0.00,VWS V14.01,2013-02-11 15:25:00,
2013-02-11 10:26:00,36.4,28.2,29.80,NW,306,7.0,22.0,72,0.00,,,0.00,0.00,VWS V14.01,2013-02-11 15:26:00,
2013-02-11 10:27:00,36.3,28.1,29.80,West,281,9.0,9.0,72,0.00,,,0.00,0.00,VWS V14.01,2013-02-11 15:27:00,
2013-02-11 10:30:00,36.3,27.8,29.80,NW,320,6.0,15.0,71,0.00,,,0.00,0.00,VWS V14.01,2013-02-11 15:30:00,
2013-02-11 10:31:00,36.3,28.1,29.80,NNW,331,15.0,15.0,72,0.00,,,0.00,0.00,VWS V14.01,2013-02-11 15:31:00,
2013-02-11 10:32:00,36.4,28.2,29.80,NNW,340,7.0,9.0,72,0.00,,,0.00,0.00,VWS V14.01,2013-02-11 15:32:00,
2013-02-11 10:35:00,36.3,27.5,29.80,WNW,286,8.0,9.0,70,0.00,,,0.00,0.00,VWS V14.01,2013-02-11 15:35:00,
2013-02-11 10:36:00,36.3,27.5,29.81,NW,309,3.0,10.0,70,0.00,,,0.00,0.00,VWS V14.01,2013-02-11 15:36:00,
2013-02-11 10:37:00,36.3,27.8,29.81,NW,317,11.0,12.0,71,0.00,,,0.00,0.00,VWS V14.01,2013-02-11 15:37:00,
2013-02-11 10:40:00,36.2,27.4,29.81,NW,320,7.0,11.0,70,0.00,,,0.00,0.00,VWS V14.01,2013-02-11 15:40:00,
2013-02-11 10:41:00,36.2,27.4,29.81,NNW,333,7.0,13.0,70,0.00,,,0.00,0.00,VWS V14.01,2013-02-11 15:41:00,
2013-02-11 10:42:00,36.2,27.4,29.81,NW,311,8.0,15.0,70,0.00,,,0.00,0.00,VWS V14.01,2013-02-11 15:42:00,
2013-02-11 10:45:00,36.1,26.9,29.81,North,5,13.0,15.0,69,0.00,,,0.00,0.00,VWS V14.01,2013-02-11 15:45:00,
2013-02-11 10:46:00,36.0,26.8,29.81,NNW,335,6.0,13.0,69,0.00,,,0.00,0.00,VWS V14.01,2013-02-11 15:46:00,
2013-02-11 10:47:00,36.0,27.2,29.81,NNW,330,5.0,9.0,70,0.00,,,0.00,0.00,VWS V14.01,2013-02-11 15:47:00,
2013-02-11 10:50:00,35.9,27.1,29.81,NW,323,6.0,8.0,70,0.00,,,0.00,0.00,VWS V14.01,2013-02-11 15:50:00,
2013-02-11 10:51:00,35.9,27.1,29.81,NW,321,5.0,6.0,70,0.00,,,0.00,0.00,VWS V14.01,2013-02-11 15:51:00,
2013-02-11 10:52:00,35.9,27.1,29.81,NNW,337,10.0,12.0,70,0.00,,,0.00,0.00,VWS V14.01,2013-02-11 15:52:00,
2013-02-11 10:55:00,35.8,27.0,29.82,NW,325,10.0,10.0,70,0.00,,,0.00,0.00,VWS V14.01,2013-02-11 15:55:00,
2013-02-11 10:56:00,35.7,26.9,29.82,NNW,343,6.0,10.0,70,0.00,,,0.00,0.00,VWS V14.01,2013-02-11 15:56:00,
2013-02-11 10:57:00,35.7,26.9,29.82,NNW,329,13.0,15.0,70,0.00,,,0.00,0.00,VWS V14.01,2013-02-11 15:57:00,
2013-02-11 11:00:00,35.6,26.8,29.82,NW,307,10.0,10.0,70,0.00,,,0.00,0.00,VWS V14.01,2013-02-11 16:00:00,
2013-02-11 11:01:00,35.6,26.8,29.82,NNW,337,7.0,9.0,70,0.00,,,0.00,0.00,VWS V14.01,2013-02-11 16:01:00,
2013-02-11 11:02:00,35.6,26.8,29.82,NW,304,11.0,17.0,70,0.00,,,0.00,0.00,VWS V14.01,2013-02-11 16:02:00,
2013-02-11 11:05:00,35.6,27.1,29.82,NW,322,11.0,12.0,71,0.00,,,0.00,0.00,VWS V14.01,2013-02-11 16:05:00,
2013-02-11 11:06:00,35.6,26.8,29.82,NNW,336,12.0,15.0,70,0.00,,,0.00,0.00,VWS V14.01,2013-02-11 16:06:00,
2013-02-11 11:07:00,35.5,26.7,29.82,North,350,7.0,7.0,70,0.00,,,0.00,0.00,VWS V14.01,2013-02-11 16:07:00,
2013-02-11 11:08:00,35.6,27.1,29.82,NW,309,7.0,8.0,71,0.00,,,0.00,0.00,VWS V14.01,2013-02-11 16:08:00,
2013-02-11 11:10:00,35.5,27.0,29.82,WNW,296,5.0,8.0,71,0.00,,,0.00,0.00,VWS V14.01,2013-02-11 16:10:00,
2013-02-11 11:11:00,35.5,27.0,29.82,NNW,345,9.0,10.0,71,0.00,,,0.00,0.00,VWS V14.01,2013-02-11 16:11:00,
2013-02-11 11:12:00,35.5,27.0,29.82,NNW,327,3.0,4.0,71,0.00,,,0.00,0.00,VWS V14.01,2013-02-11 16:12:00,
2013-02-11 11:13:00,35.5,27.0,29.82,NNW,327,2.0,4.0,71,0.00,,,0.00,0.00,VWS V14.01,2013-02-11 16:13:00,
2013-02-11 11:15:00,35.5,26.7,29.82,North,355,7.0,21.0,70,0.00,,,0.00,0.00,VWS V14.01,2013-02-11 16:15:00,
2013-02-11 11:16:00,35.5,26.7,29.82,WNW,303,6.0,9.0,70,0.00,,,0.00,0.00,VWS V14.01,2013-02-11 16:16:00,
2013-02-11 11:17:00,35.5,26.7,29.82,North,351,18.0,18.0,70,0.00,,,0.00,0.00,VWS V14.01,2013-02-11 16:17:00,
2013-02-11 11:18:00,35.6,26.8,29.82,NW,311,5.0,18.0,70,0.00,,,0.00,0.00,VWS V14.01,2013-02-11 16:18:00,
2013-02-11 11:20:00,35.6,26.8,29.82,WNW,303,5.0,19.0,70,0.00,,,0.00,0.00,VWS V14.01,2013-02-11 16:20:00,
2013-02-11 11:21:00,35.6,26.5,29.83,North,355,11.0,15.0,69,0.00,,,0.00,0.00,VWS V14.01,2013-02-11 16:21:00,
2013-02-11 11:23:00,35.6,26.5,29.83,NNW,329,13.0,16.0,69,0.00,,,0.00,0.00,VWS V14.01,2013-02-11 16:23:00,
2013-02-11 11:25:00,35.6,26.5,29.83,NW,321,9.0,18.0,69,0.00,,,0.00,0.00,VWS V14.01,2013-02-11 16:25:00,
2013-02-11 11:26:00,35.6,26.5,29.83,NW,313,5.0,7.0,69,0.00,,,0.00,0.00,VWS V14.01,2013-02-11 16:26:00,
2013-02-11 11:28:00,35.6,26.8,29.83,NNW,333,6.0,9.0,70,0.00,,,0.00,0.00,VWS V14.01,2013-02-11 16:28:00,
2013-02-11 11:30:00,35.6,26.8,29.83,NNW,338,8.0,12.0,70,0.00,,,0.00,0.00,VWS V14.01,2013-02-11 16:30:00,
2013-02-11 11:31:00,35.5,26.7,29.83,North,355,26.0,26.0,70,0.00,,,0.00,0.00,VWS V14.01,2013-02-11 16:31:00,
2013-02-11 11:33:00,35.5,26.7,29.83,NNW,331,8.0,18.0,70,0.00,,,0.00,0.00,VWS V14.01,2013-02-11 16:33:00,
2013-02-11 11:35:00,35.5,26.7,29.83,NNW,333,5.0,9.0,70,0.00,,,0.00,0.00,VWS V14.01,2013-02-11 16:35:00,
2013-02-11 11:37:00,35.5,26.7,29.83,NW,309,13.0,16.0,70,0.00,,,0.00,0.00,VWS V14.01,2013-02-11 16:37:00,
2013-02-11 11:38:00,35.5,26.7,29.83,North,10,13.0,16.0,70,0.00,,,0.00,0.00,VWS V14.01,2013-02-11 16:38:00,
2013-02-11 11:40:00,35.5,26.7,29.83,NW,316,7.0,18.0,70,0.00,,,0.00,0.00,VWS V14.01,2013-02-11 16:40:00,
2013-02-11 11:42:00,35.5,26.7,29.83,NW,316,6.0,9.0,70,0.00,,,0.00,0.00,VWS V14.01,2013-02-11 16:42:00,
2013-02-11 11:43:00,35.5,26.7,29.83,WNW,290,7.0,10.0,70,0.00,,,0.00,0.00,VWS V14.01,2013-02-11 16:43:00,
2013-02-11 11:45:00,35.4,27.0,29.83,NNW,347,7.0,13.0,71,0.00,,,0.00,0.00,VWS V14.01,2013-02-11 16:45:00,
2013-02-11 11:47:00,35.4,27.0,29.83,WNW,292,8.0,11.0,71,0.00,,,0.00,0.00,VWS V14.01,2013-02-11 16:47:00,
2013-02-11 11:48:00,35.4,27.0,29.83,NW,309,9.0,11.0,71,0.00,,,0.00,0.00,VWS V14.01,2013-02-11 16:48:00,
2013-02-11 11:50:00,35.4,27.3,29.84,North,355,6.0,12.0,72,0.00,,,0.00,0.00,VWS V14.01,2013-02-11 16:50:00,
2013-02-11 11:52:00,35.4,27.0,29.84,NNW,348,11.0,13.0,71,0.00,,,0.00,0.00,VWS V14.01,2013-02-11 16:52:00,
2013-02-11 11:53:00,35.4,27.0,29.84,WNW,303,15.0,15.0,71,0.00,,,0.00,0.00,VWS V14.01,2013-02-11 16:53:00,
2013-02-11 11:55:00,35.4,27.3,29.84,WNW,296,6.0,11.0,72,0.00,,,0.00,0.00,VWS V14.01,2013-02-11 16:55:00,
2013-02-11 11:57:00,35.4,27.0,29.83,NW,316,4.0,10.0,71,0.00,,,0.00,0.00,VWS V14.01,2013-02-11 16:57:00,
2013-02-11 11:58:00,35.4,27.3,29.83,NW,317,2.0,5.0,72,0.00,,,0.00,0.00,VWS V14.01,2013-02-11 16:58:00,
2013-02-11 12:00:00,35.4,27.3,29.84,NW,305,4.0,4.0,72,0.00,,,0.00,0.00,VWS V14.01,2013-02-11 17:00:00,
2013-02-11 12:02:00,35.4,27.3,29.84,NNW,338,6.0,10.0,72,0.00,,,0.00,0.00,VWS V14.01,2013-02-11 17:02:00,
2013-02-11 12:03:00,35.4,27.0,29.84,WNW,292,6.0,9.0,71,0.00,,,0.00,0.00,VWS V14.01,2013-02-11 17:03:00,
2013-02-11 12:05:00,35.4,27.3,29.84,NW,318,3.0,4.0,72,0.00,,,0.00,0.00,VWS V14.01,2013-02-11 17:05:00,
2013-02-11 12:07:00,35.4,27.3,29.84,NW,305,4.0,9.0,72,0.00,,,0.00,0.00,VWS V14.01,2013-02-11 17:07:00,
2013-02-11 12:08:00,35.5,27.4,29.84,NW,319,7.0,10.0,72,0.00,,,0.00,0.00,VWS V14.01,2013-02-11 17:08:00,
2013-02-11 12:10:00,35.5,27.0,29.84,WNW,294,18.0,18.0,71,0.00,,,0.00,0.00,VWS V14.01,2013-02-11 17:10:00,
2013-02-11 12:12:00,35.5,27.4,29.83,NW,323,6.0,13.0,72,0.00,,,0.00,0.00,VWS V14.01,2013-02-11 17:12:00,
2013-02-11 12:13:00,35.4,27.3,29.84,NW,326,6.0,6.0,72,0.00,,,0.00,0.00,VWS V14.01,2013-02-11 17:13:00,
2013-02-11 12:15:00,35.4,27.3,29.84,NW,316,6.0,6.0,72,0.00,,,0.00,0.00,VWS V14.01,2013-02-11 17:15:00,
2013-02-11 12:17:00,35.4,27.3,29.84,NNW,340,12.0,16.0,72,0.00,,,0.00,0.00,VWS V14.01,2013-02-11 17:17:00,
2013-02-11 12:18:00,35.5,27.0,29.84,WNW,300,10.0,10.0,71,0.00,,,0.00,0.00,VWS V14.01,2013-02-11 17:18:00,
2013-02-11 12:20:00,35.4,27.0,29.84,NW,315,9.0,15.0,71,0.00,,,0.00,0.00,VWS V14.01,2013-02-11 17:20:00,
2013-02-11 12:22:00,35.5,26.7,29.84,WNW,282,9.0,10.0,70,0.00,,,0.00,0.00,VWS V14.01,2013-02-11 17:22:00,
2013-02-11 12:23:00,35.5,27.0,29.84,WNW,290,7.0,8.0,71,0.00,,,0.00,0.00,VWS V14.01,2013-02-11 17:23:00,
2013-02-11 12:25:00,35.4,27.0,29.84,NNW,332,11.0,15.0,71,0.00,,,0.00,0.00,VWS V14.01,2013-02-11 17:25:00,
2013-02-11 12:27:00,35.4,26.6,29.84,NNW,332,9.0,10.0,70,0.00,,,0.00,0.00,VWS V14.01,2013-02-11 17:27:00,
2013-02-11 12:28:00,35.4,27.0,29.84,NW,322,6.0,13.0,71,0.00,,,0.00,0.00,VWS V14.01,2013-02-11 17:28:00,
2013-02-11 12:30:00,35.4,27.0,29.84,NW,315,2.0,5.0,71,0.00,,,0.00,0.00,VWS V14.01,2013-02-11 17:30:00,
2013-02-11 12:32:00,35.4,27.3,29.84,NNW,337,3.0,3.0,72,0.00,,,0.00,0.00,VWS V14.01,2013-02-11 17:32:00,
2013-02-11 12:33:00,35.4,27.3,29.85,NW,309,2.0,3.0,72,0.00,,,0.00,0.00,VWS V14.01,2013-02-11 17:33:00,
2013-02-11 12:34:00,35.4,27.6,29.85,NW,307,4.0,5.0,73,0.00,,,0.00,0.00,VWS V14.01,2013-02-11 17:34:00,
2013-02-11 12:35:00,35.4,28.0,29.85,NNW,327,5.0,5.0,74,0.00,,,0.00,0.00,VWS V14.01,2013-02-11 17:35:00,
2013-02-11 12:37:00,35.3,28.2,29.85,NW,314,6.0,8.0,75,0.00,,,0.00,0.00,VWS V14.01,2013-02-11 17:37:00,
2013-02-11 12:38:00,35.3,28.2,29.85,WNW,288,7.0,10.0,75,0.00,,,0.00,0.00,VWS V14.01,2013-02-11 17:38:00,
2013-02-11 12:39:00,35.3,28.2,29.85,WNW,297,6.0,10.0,75,0.00,,,0.00,0.00,VWS V14.01,2013-02-11 17:39:00,
2013-02-11 12:40:00,35.2,28.1,29.85,WNW,302,6.0,8.0,75,0.00,,,0.00,0.00,VWS V14.01,2013-02-11 17:40:00,
2013-02-11 12:42:00,35.2,28.1,29.84,WNW,288,11.0,13.0,75,0.00,,,0.00,0.00,VWS V14.01,2013-02-11 17:42:00,
2013-02-11 12:43:00,35.2,28.1,29.85,NNW,338,5.0,5.0,75,0.00,,,0.00,0.00,VWS V14.01,2013-02-11 17:43:00,
2013-02-11 12:44:00,35.2,28.1,29.85,NNW,336,4.0,5.0,75,0.00,,,0.00,0.00,VWS V14.01,2013-02-11 17:44:00,
2013-02-11 12:45:00,35.2,28.1,29.85,NW,311,6.0,11.0,75,0.00,,,0.00,0.00,VWS V14.01,2013-02-11 17:45:00,
2013-02-11 12:47:00,35.2,28.1,29.84,NW,324,5.0,7.0,75,0.00,,,0.00,0.00,VWS V14.01,2013-02-11 17:47:00,
2013-02-11 12:48:00,35.1,28.0,29.84,NW,322,6.0,9.0,75,0.00,,,0.00,0.00,VWS V14.01,2013-02-11 17:48:00,
2013-02-11 12:49:00,35.1,27.7,29.84,NW,315,6.0,9.0,74,0.00,,,0.00,0.00,VWS V14.01,2013-02-11 17:49:00,
2013-02-11 12:50:00,35.1,27.7,29.84,NW,325,3.0,5.0,74,0.00,,,0.00,0.00,VWS V14.01,2013-02-11 17:50:00,
2013-02-11 12:52:00,35.2,28.1,29.84,NW,304,9.0,10.0,75,0.00,,,0.00,0.00,VWS V14.01,2013-02-11 17:52:00,
2013-02-11 12:53:00,35.2,27.8,29.84,WNW,302,10.0,14.0,74,0.00,,,0.00,0.00,VWS V14.01,2013-02-11 17:53:00,
2013-02-11 12:54:00,35.2,27.8,29.84,NW,309,9.0,15.0,74,0.00,,,0.00,0.00,VWS V14.01,2013-02-11 17:54:00,
2013-02-11 12:55:00,35.2,27.8,29.84,NNW,343,6.0,10.0,74,0.00,,,0.00,0.00,VWS V14.01,2013-02-11 17:55:00,
2013-02-11 12:57:00,35.2,27.4,29.84,NW,319,7.0,10.0,73,0.00,,,0.00,0.00,VWS V14.01,2013-02-11 17:57:00,
2013-02-11 12:59:00,35.3,27.5,29.85,NNW,337,7.0,10.0,73,0.00,,,0.00,0.00,VWS V14.01,2013-02-11 17:59:00,
2013-02-11 13:00:00,35.3,27.2,29.84,NW,323,9.0,9.0,72,0.00,,,0.00,0.00,VWS V14.01,2013-02-11 18:00:00,
2013-02-11 13:02:00,35.3,26.9,29.85,NW,316,12.0,16.0,71,0.00,,,0.00,0.00,VWS V14.01,2013-02-11 18:02:00,
2013-02-11 13:04:00,35.3,26.5,29.84,NNW,342,5.0,17.0,70,0.00,,,0.00,0.00,VWS V14.01,2013-02-11 18:04:00,
2013-02-11 13:05:00,35.4,26.6,29.84,NNW,331,5.0,10.0,70,0.00,,,0.00,0.00,VWS V14.01,2013-02-11 18:05:00,
2013-02-11 13:07:00,35.4,26.6,29.84,North,355,10.0,19.0,70,0.00,,,0.00,0.00,VWS V14.01,2013-02-11 18:07:00,
2013-02-11 13:09:00,35.4,26.3,29.85,NW,309,11.0,14.0,69,0.00,,,0.00,0.00,VWS V14.01,2013-02-11 18:09:00,
2013-02-11 13:10:00,35.4,26.6,29.84,NW,305,8.0,10.0,70,0.00,,,0.00,0.00,VWS V14.01,2013-02-11 18:10:00,
2013-02-11 13:12:00,35.4,26.6,29.84,WNW,300,5.0,5.0,70,0.00,,,0.00,0.00,VWS V14.01,2013-02-11 18:12:00,
2013-02-11 13:14:00,35.4,27.0,29.85,NW,319,11.0,11.0,71,0.00,,,0.00,0.00,VWS V14.01,2013-02-11 18:14:00,
2013-02-11 13:15:00,35.4,27.0,29.84,WNW,284,6.0,9.0,71,0.00,,,0.00,0.00,VWS V14.01,2013-02-11 18:15:00,
2013-02-11 13:17:00,35.4,27.0,29.85,NW,310,13.0,17.0,71,0.00,,,0.00,0.00,VWS V14.01,2013-02-11 18:17:00,
2013-02-11 13:19:00,35.4,27.0,29.84,North,5,13.0,14.0,71,0.00,,,0.00,0.00,VWS V14.01,2013-02-11 18:19:00,
2013-02-11 13:20:00,35.5,27.0,29.85,WNW,284,11.0,15.0,71,0.00,,,0.00,0.00,VWS V14.01,2013-02-11 18:20:00,
2013-02-11 13:22:00,35.5,27.0,29.85,WNW,294,4.0,11.0,71,0.00,,,0.00,0.00,VWS V14.01,2013-02-11 18:22:00,
2013-02-11 13:24:00,35.5,27.0,29.85,WNW,292,10.0,10.0,71,0.00,,,0.00,0.00,VWS V14.01,2013-02-11 18:24:00,
2013-02-11 13:25:00,35.6,27.1,29.85,North,5,7.0,12.0,71,0.00,,,0.00,0.00,VWS V14.01,2013-02-11 18:25:00,
2013-02-11 13:27:00,35.6,26.8,29.84,NW,307,9.0,11.0,70,0.00,,,0.00,0.00,VWS V14.01,2013-02-11 18:27:00,
2013-02-11 13:29:00,35.6,27.1,29.85,West,271,17.0,18.0,71,0.00,,,0.00,0.00,VWS V14.01,2013-02-11 18:29:00,
2013-02-11 13:31:00,35.5,27.0,29.85,WNW,303,6.0,13.0,71,0.00,,,0.00,0.00,VWS V14.01,2013-02-11 18:31:00,
2013-02-11 13:32:00,35.5,27.4,29.85,NW,312,5.0,10.0,72,0.00,,,0.00,0.00,VWS V14.01,2013-02-11 18:32:00,
2013-02-11 13:34:00,35.4,27.3,29.85,NW,306,9.0,20.0,72,0.00,,,0.00,0.00,VWS V14.01,2013-02-11 18:34:00,
2013-02-11 13:35:00,35.4,27.3,29.84,NW,308,6.0,7.0,72,0.00,,,0.00,0.00,VWS V14.01,2013-02-11 18:35:00,
2013-02-11 13:37:00,35.4,27.6,29.84,WNW,294,9.0,12.0,73,0.00,,,0.00,0.00,VWS V14.01,2013-02-11 18:37:00,
2013-02-11 13:39:00,35.5,27.7,29.85,NNW,327,8.0,15.0,73,0.00,,,0.00,0.00,VWS V14.01,2013-02-11 18:39:00,
2013-02-11 13:40:00,35.5,27.4,29.85,NW,325,10.0,14.0,72,0.00,,,0.00,0.00,VWS V14.01,2013-02-11 18:40:00,
2013-02-11 13:42:00,35.5,27.4,29.85,NNW,327,4.0,8.0,72,0.00,,,0.00,0.00,VWS V14.01,2013-02-11 18:42:00,
2013-02-11 13:44:00,35.5,27.4,29.85,NW,311,9.0,13.0,72,0.00,,,0.00,0.00,VWS V14.01,2013-02-11 18:44:00,
2013-02-11 13:45:00,35.5,27.0,29.85,NNW,336,10.0,13.0,71,0.00,,,0.00,0.00,VWS V14.01,2013-02-11 18:45:00,
2013-02-11 13:46:00,35.5,27.0,29.85,NW,306,10.0,21.0,71,0.00,,,0.00,0.00,VWS V14.01,2013-02-11 18:46:00,
2013-02-11 13:47:00,35.6,27.1,29.85,NW,309,4.0,8.0,71,0.00,,,0.00,0.00,VWS V14.01,2013-02-11 18:47:00,
2013-02-11 13:49:00,35.6,27.1,29.85,NNW,336,9.0,14.0,71,0.00,,,0.00,0.00,VWS V14.01,2013-02-11 18:49:00,
2013-02-11 13:50:00,35.7,27.2,29.85,WNW,295,7.0,13.0,71,0.00,,,0.00,0.00,VWS V14.01,2013-02-11 18:50:00,
2013-02-11 13:51:00,35.7,27.2,29.85,WNW,284,6.0,12.0,71,0.00,,,0.00,0.00,VWS V14.01,2013-02-11 18:51:00,
2013-02-11 13:52:00,35.7,27.2,29.85,NW,307,6.0,11.0,71,0.00,,,0.00,0.00,VWS V14.01,2013-02-11 18:52:00,
2013-02-11 13:54:00,35.7,27.2,29.85,WNW,292,10.0,11.0,71,0.00,,,0.00,0.00,VWS V14.01,2013-02-11 18:54:00,
2013-02-11 13:55:00,35.7,27.2,29.85,NNW,327,7.0,9.0,71,0.00,,,0.00,0.00,VWS V14.01,2013-02-11 18:55:00,
2013-02-11 13:56:00,35.7,27.2,29.85,WNW,302,6.0,9.0,71,0.00,,,0.00,0.00,VWS V14.01,2013-02-11 18:56:00,
2013-02-11 13:57:00,35.7,27.2,29.85,NW,309,12.0,12.0,71,0.00,,,0.00,0.00,VWS V14.01,2013-02-11 18:57:00,
2013-02-11 13:59:00,35.7,26.9,29.85,NW,324,9.0,12.0,70,0.00,,,0.00,0.00,VWS V14.01,2013-02-11 18:59:00,
2013-02-11 14:00:00,35.6,26.8,29.85,NW,326,6.0,8.0,70,0.00,,,0.00,0.00,VWS V14.01,2013-02-11 19:00:00,
2013-02-11 14:01:00,35.6,27.1,29.85,WNW,300,8.0,8.0,71,0.00,,,0.00,0.00,VWS V14.01,2013-02-11 19:01:00,
2013-02-11 14:03:00,35.7,27.2,29.85,WNW,284,18.0,18.0,71,0.00,,,0.00,0.00,VWS V14.01,2013-02-11 19:03:00,
2013-02-11 14:04:00,35.7,27.2,29.85,WNW,285,11.0,11.0,71,0.00,,,0.00,0.00,VWS V14.01,2013-02-11 19:04:00,
2013-02-11 14:05:00,35.7,27.2,29.85,NW,323,9.0,12.0,71,0.00,,,0.00,0.00,VWS V14.01,2013-02-11 19:05:00,
2013-02-11 14:06:00,35.7,27.2,29.85,NW,315,5.0,12.0,71,0.00,,,0.00,0.00,VWS V14.01,2013-02-11 19:06:00,
2013-02-11 14:08:00,35.7,27.6,29.85,NNW,336,5.0,7.0,72,0.00,,,0.00,0.00,VWS V14.01,2013-02-11 19:08:00,
2013-02-11 14:09:00,35.7,27.6,29.85,WNW,298,8.0,11.0,72,0.00,,,0.00,0.00,VWS V14.01,2013-02-11 19:09:00,
2013-02-11 14:10:00,35.7,27.6,29.85,WNW,289,12.0,17.0,72,0.00,,,0.00,0.00,VWS V14.01,2013-02-11 19:10:00,
2013-02-11 14:11:00,35.7,27.6,29.85,WNW,296,7.0,17.0,72,0.00,,,0.00,0.00,VWS V14.01,2013-02-11 19:11:00,
2013-02-11 14:13:00,35.7,27.6,29.85,WNW,301,11.0,14.0,72,0.00,,,0.00,0.00,VWS V14.01,2013-02-11 19:13:00,
2013-02-11 14:14:00,35.7,27.6,29.85,NNW,336,7.0,8.0,72,0.00,,,0.00,0.00,VWS V14.01,2013-02-11 19:14:00,
2013-02-11 14:15:00,35.7,27.6,29.85,NW,305,8.0,8.0,72,0.00,,,0.00,0.00,VWS V14.01,2013-02-11 19:15:00,
2013-02-11 14:16:00,35.7,27.6,29.85,WSW,253,10.0,10.0,72,0.00,,,0.00,0.00,VWS V14.01,2013-02-11 19:16:00,
2013-02-11 14:18:00,35.7,27.9,29.85,NW,309,7.0,12.0,73,0.00,,,0.00,0.00,VWS V14.01,2013-02-11 19:18:00,
2013-02-11 14:19:00,35.7,27.9,29.85,NW,304,5.0,13.0,73,0.00,,,0.00,0.00,VWS V14.01,2013-02-11 19:19:00,
2013-02-11 14:20:00,35.6,27.8,29.86,NW,311,11.0,11.0,73,0.00,,,0.00,0.00,VWS V14.01,2013-02-11 19:20:00,
2013-02-11 14:21:00,35.6,27.8,29.86,North,9,11.0,15.0,73,0.00,,,0.00,0.00,VWS V14.01,2013-02-11 19:21:00,
2013-02-11 14:23:00,35.6,27.8,29.86,NNW,343,7.0,9.0,73,0.00,,,0.00,0.00,VWS V14.01,2013-02-11 19:23:00,
2013-02-11 14:24:00,35.6,27.8,29.85,NNW,332,5.0,9.0,73,0.00,,,0.00,0.00,VWS V14.01,2013-02-11 19:24:00,
2013-02-11 14:25:00,35.6,27.8,29.85,NW,318,9.0,13.0,73,0.00,,,0.00,0.00,VWS V14.01,2013-02-11 19:25:00,
2013-02-11 14:26:00,35.5,27.7,29.85,NW,306,10.0,18.0,73,0.00,,,0.00,0.00,VWS V14.01,2013-02-11 19:26:00,
2013-02-11 14:28:00,35.5,27.4,29.85,WNW,286,12.0,14.0,72,0.00,,,0.00,0.00,VWS V14.01,2013-02-11 19:28:00,
2013-02-11 14:29:00,35.5,27.4,29.86,NW,319,12.0,16.0,72,0.00,,,0.00,0.00,VWS V14.01,2013-02-11 19:29:00,
2013-02-11 14:31:00,35.4,27.3,29.86,WNW,300,9.0,13.0,72,0.00,,,0.00,0.00,VWS V14.01,2013-02-11 19:31:00,
2013-02-11 14:33:00,35.5,27.4,29.86,NNW,327,6.0,12.0,72,0.00,,,0.00,0.00,VWS V14.01,2013-02-11 19:33:00,
2013-02-11 14:34:00,35.5,27.4,29.86,NNW,328,7.0,7.0,72,0.00,,,0.00,0.00,VWS V14.01,2013-02-11 19:34:00,
2013-02-11 14:35:00,35.5,27.4,29.86,WNW,292,10.0,10.0,72,0.00,,,0.00,0.00,VWS V14.01,2013-02-11 19:35:00,
2013-02-11 14:36:00,35.5,27.4,29.86,WNW,298,7.0,10.0,72,0.00,,,0.00,0.00,VWS V14.01,2013-02-11 19:36:00,
2013-02-11 14:38:00,35.5,27.4,29.86,WNW,288,8.0,13.0,72,0.00,,,0.00,0.00,VWS V14.01,2013-02-11 19:38:00,
2013-02-11 14:39:00,35.6,27.5,29.86,WNW,302,5.0,8.0,72,0.00,,,0.00,0.00,VWS V14.01,2013-02-11 19:39:00,
2013-02-11 14:40:00,35.6,27.5,29.86,NW,325,2.0,11.0,72,0.00,,,0.00,0.00,VWS V14.01,2013-02-11 19:40:00,
2013-02-11 14:41:00,35.6,27.8,29.86,WNW,301,6.0,11.0,73,0.00,,,0.00,0.00,VWS V14.01,2013-02-11 19:41:00,
2013-02-11 14:43:00,35.7,27.6,29.86,NW,307,12.0,12.0,72,0.00,,,0.00,0.00,VWS V14.01,2013-02-11 19:43:00,
2013-02-11 14:45:00,35.6,27.5,29.86,WNW,285,7.0,7.0,72,0.00,,,0.00,0.00,VWS V14.01,2013-02-11 19:45:00,
2013-02-11 14:46:00,35.6,27.5,29.86,WNW,285,7.0,7.0,72,0.00,,,0.00,0.00,VWS V14.01,2013-02-11 19:46:00,
2013-02-11 14:48:00,35.7,27.2,29.86,NW,313,5.0,15.0,71,0.00,,,0.00,0.00,VWS V14.01,2013-02-11 19:48:00,
2013-02-11 14:50:00,35.7,27.6,29.86,WNW,292,8.0,9.0,72,0.00,,,0.00,0.00,VWS V14.01,2013-02-11 19:50:00,
2013-02-11 14:51:00,35.7,27.6,29.86,NW,304,7.0,12.0,72,0.00,,,0.00,0.00,VWS V14.01,2013-02-11 19:51:00,
2013-02-11 14:53:00,35.7,27.2,29.86,NW,318,7.0,19.0,71,0.00,,,0.00,0.00,VWS V14.01,2013-02-11 19:53:00,
2013-02-11 14:55:00,35.7,26.9,29.87,NNW,331,8.0,22.0,70,0.00,,,0.00,0.00,VWS V14.01,2013-02-11 19:55:00,
2013-02-11 14:56:00,35.7,27.2,29.87,NW,315,6.0,9.0,71,0.00,,,0.00,0.00,VWS V14.01,2013-02-11 19:56:00,
2013-02-11 14:58:00,35.7,26.9,29.87,NW,311,6.0,8.0,70,0.00,,,0.00,0.00,VWS V14.01,2013-02-11 19:58:00,
2013-02-11 15:00:00,35.7,26.9,29.86,NW,319,6.0,15.0,70,0.00,,,0.00,0.00,VWS V14.01,2013-02-11 20:00:00,
2013-02-11 15:01:00,35.7,26.9,29.86,NW,317,5.0,8.0,70,0.00,,,0.00,0.00,VWS V14.01,2013-02-11 20:01:00,
2013-02-11 15:03:00,35.7,26.9,29.87,NNW,342,12.0,12.0,70,0.00,,,0.00,0.00,VWS V14.01,2013-02-11 20:03:00,
2013-02-11 15:05:00,35.7,26.5,29.87,NW,306,5.0,15.0,69,0.00,,,0.00,0.00,VWS V14.01,2013-02-11 20:05:00,
2013-02-11 15:06:00,35.7,26.5,29.87,NW,313,7.0,7.0,69,0.00,,,0.00,0.00,VWS V14.01,2013-02-11 20:06:00,
2013-02-11 15:08:00,35.7,26.5,29.87,NW,309,8.0,8.0,69,0.00,,,0.00,0.00,VWS V14.01,2013-02-11 20:08:00,
2013-02-11 15:10:00,35.8,27.0,29.87,NW,313,8.0,9.0,70,0.00,,,0.00,0.00,VWS V14.01,2013-02-11 20:10:00,
2013-02-11 15:11:00,35.8,27.0,29.87,NNW,334,10.0,13.0,70,0.00,,,0.00,0.00,VWS V14.01,2013-02-11 20:11:00,
2013-02-11 15:13:00,35.8,27.3,29.87,NW,319,5.0,7.0,71,0.00,,,0.00,0.00,VWS V14.01,2013-02-11 20:13:00,
2013-02-11 15:15:00,35.7,27.2,29.87,NNW,327,5.0,6.0,71,0.00,,,0.00,0.00,VWS V14.01,2013-02-11 20:15:00,
2013-02-11 15:16:00,35.7,27.6,29.87,WNW,302,10.0,12.0,72,0.00,,,0.00,0.00,VWS V14.01,2013-02-11 20:16:00,
2013-02-11 15:18:00,35.7,27.6,29.87,West,273,18.0,18.0,72,0.00,,,0.00,0.00,VWS V14.01,2013-02-11 20:18:00,
2013-02-11 15:20:00,35.7,27.6,29.87,NNW,348,5.0,7.0,72,0.00,,,0.00,0.00,VWS V14.01,2013-02-11 20:20:00,
2013-02-11 15:21:00,35.7,27.6,29.87,NW,317,9.0,9.0,72,0.00,,,0.00,0.00,VWS V14.01,2013-02-11 20:21:00,
2013-02-11 15:23:00,35.7,27.6,29.88,NW,317,6.0,8.0,72,0.00,,,0.00,0.00,VWS V14.01,2013-02-11 20:23:00,
2013-02-11 15:25:00,35.6,27.5,29.88,WNW,294,8.0,9.0,72,0.00,,,0.00,0.00,VWS V14.01,2013-02-11 20:25:00,
2013-02-11 15:26:00,35.6,27.8,29.88,NW,321,5.0,5.0,73,0.00,,,0.00,0.00,VWS V14.01,2013-02-11 20:26:00,
2013-02-11 15:28:00,35.6,27.5,29.88,WNW,295,7.0,7.0,72,0.00,,,0.00,0.00,VWS V14.01,2013-02-11 20:28:00,
2013-02-11 15:30:00,35.6,27.5,29.88,North,349,7.0,7.0,72,0.00,,,0.00,0.00,VWS V14.01,2013-02-11 20:30:00,
2013-02-11 15:31:00,35.6,27.5,29.88,WNW,295,4.0,5.0,72,0.00,,,0.00,0.00,VWS V14.01,2013-02-11 20:31:00,
2013-02-11 15:33:00,35.6,27.5,29.88,NNW,329,5.0,9.0,72,0.00,,,0.00,0.00,VWS V14.01,2013-02-11 20:33:00,
2013-02-11 15:35:00,35.6,27.5,29.88,WNW,302,7.0,9.0,72,0.00,,,0.00,0.00,VWS V14.01,2013-02-11 20:35:00,
2013-02-11 15:36:00,35.6,27.5,29.88,NW,304,8.0,8.0,72,0.00,,,0.00,0.00,VWS V14.01,2013-02-11 20:36:00,
2013-02-11 15:38:00,35.6,27.5,29.88,WNW,303,7.0,14.0,72,0.00,,,0.00,0.00,VWS V14.01,2013-02-11 20:38:00,
2013-02-11 15:41:00,35.6,27.5,29.89,NNW,334,6.0,6.0,72,0.00,,,0.00,0.00,VWS V14.01,2013-02-11 20:41:00,
2013-02-11 15:43:00,35.6,27.8,29.89,NW,325,6.0,12.0,73,0.00,,,0.00,0.00,VWS V14.01,2013-02-11 20:43:00,
2013-02-11 15:46:00,35.6,27.8,29.89,NNW,340,5.0,6.0,73,0.00,,,0.00,0.00,VWS V14.01,2013-02-11 20:46:00,
2013-02-11 15:47:00,35.6,27.5,29.89,NW,317,4.0,6.0,72,0.00,,,0.00,0.00,VWS V14.01,2013-02-11 20:47:00,
2013-02-11 15:48:00,35.6,27.5,29.89,NNE,13,5.0,13.0,72,0.00,,,0.00,0.00,VWS V14.01,2013-02-11 20:48:00,
2013-02-11 15:51:00,35.6,27.1,29.89,NW,311,6.0,8.0,71,0.00,,,0.00,0.00,VWS V14.01,2013-02-11 20:51:00,
2013-02-11 15:52:00,35.6,27.1,29.89,NNW,338,7.0,16.0,71,0.00,,,0.00,0.00,VWS V14.01,2013-02-11 20:52:00,
2013-02-11 15:54:00,35.6,27.5,29.89,NNW,340,7.0,8.0,72,0.00,,,0.00,0.00,VWS V14.01,2013-02-11 20:54:00,
2013-02-11 15:56:00,35.6,27.5,29.89,NW,311,7.0,9.0,72,0.00,,,0.00,0.00,VWS V14.01,2013-02-11 20:56:00,
2013-02-11 15:57:00,35.6,27.5,29.89,NW,324,4.0,8.0,72,0.00,,,0.00,0.00,VWS V14.01,2013-02-11 20:57:00,
2013-02-11 15:59:00,35.6,27.5,29.89,NW,309,4.0,6.0,72,0.00,,,0.00,0.00,VWS V14.01,2013-02-11 20:59:00,
2013-02-11 16:01:00,35.6,27.5,29.89,NW,322,2.0,8.0,72,0.00,,,0.00,0.00,VWS V14.01,2013-02-11 21:01:00,
2013-02-11 16:02:00,35.6,27.5,29.89,NW,305,7.0,11.0,72,0.00,,,0.00,0.00,VWS V14.01,2013-02-11 21:02:00,
2013-02-11 16:04:00,35.6,27.1,29.89,WNW,302,7.0,11.0,71,0.00,,,0.00,0.00,VWS V14.01,2013-02-11 21:04:00,
2013-02-11 16:06:00,35.6,27.1,29.89,NW,313,4.0,8.0,71,0.00,,,0.00,0.00,VWS V14.01,2013-02-11 21:06:00,
2013-02-11 16:07:00,35.7,27.2,29.89,WNW,297,8.0,8.0,71,0.00,,,0.00,0.00,VWS V14.01,2013-02-11 21:07:00,
2013-02-11 16:09:00,35.7,27.2,29.89,WNW,293,12.0,12.0,71,0.00,,,0.00,0.00,VWS V14.01,2013-02-11 21:09:00,
2013-02-11 16:11:00,35.6,27.1,29.89,NW,319,7.0,12.0,71,0.00,,,0.00,0.00,VWS V14.01,2013-02-11 21:11:00,
2013-02-11 16:12:00,35.7,27.2,29.89,WNW,300,5.0,9.0,71,0.00,,,0.00,0.00,VWS V14.01,2013-02-11 21:12:00,
2013-02-11 16:14:00,35.7,27.2,29.89,NW,304,9.0,15.0,71,0.00,,,0.00,0.00,VWS V14.01,2013-02-11 21:14:00,
2013-02-11 16:16:00,35.7,27.2,29.90,NW,304,8.0,8.0,71,0.00,,,0.00,0.00,VWS V14.01,2013-02-11 21:16:00,
2013-02-11 16:17:00,35.7,27.2,29.90,NW,304,10.0,11.0,71,0.00,,,0.00,0.00,VWS V14.01,2013-02-11 21:17:00,
2013-02-11 16:19:00,35.7,27.2,29.90,NNW,335,15.0,15.0,71,0.00,,,0.00,0.00,VWS V14.01,2013-02-11 21:19:00,
2013-02-11 16:21:00,35.7,27.2,29.90,NW,319,5.0,6.0,71,0.00,,,0.00,0.00,VWS V14.01,2013-02-11 21:21:00,
2013-02-11 16:22:00,35.7,27.2,29.90,NW,313,4.0,6.0,71,0.00,,,0.00,0.00,VWS V14.01,2013-02-11 21:22:00,
2013-02-11 16:24:00,35.7,27.2,29.90,NNW,343,5.0,6.0,71,0.00,,,0.00,0.00,VWS V14.01,2013-02-11 21:24:00,
2013-02-11 16:26:00,35.7,27.6,29.90,NW,306,8.0,8.0,72,0.00,,,0.00,0.00,VWS V14.01,2013-02-11 21:26:00,
2013-02-11 16:27:00,35.8,27.7,29.90,NNW,333,4.0,8.0,72,0.00,,,0.00,0.00,VWS V14.01,2013-02-11 21:27:00,
2013-02-11 16:29:00,35.7,27.6,29.90,NW,308,5.0,5.0,72,0.00,,,0.00,0.00,VWS V14.01,2013-02-11 21:29:00,
2013-02-11 16:31:00,35.7,27.9,29.90,WNW,302,2.0,5.0,73,0.00,,,0.00,0.00,VWS V14.01,2013-02-11 21:31:00,
2013-02-11 16:32:00,35.7,27.9,29.90,NNW,330,7.0,7.0,73,0.00,,,0.00,0.00,VWS V14.01,2013-02-11 21:32:00,
2013-02-11 16:34:00,35.7,27.9,29.90,WNW,290,7.0,9.0,73,0.00,,,0.00,0.00,VWS V14.01,2013-02-11 21:34:00,
2013-02-11 16:36:00,35.7,28.2,29.90,WNW,302,8.0,8.0,74,0.00,,,0.00,0.00,VWS V14.01,2013-02-11 21:36:00,
2013-02-11 16:37:00,35.7,28.2,29.90,NW,307,4.0,11.0,74,0.00,,,0.00,0.00,VWS V14.01,2013-02-11 21:37:00,
2013-02-11 16:39:00,35.6,28.1,29.90,WNW,302,4.0,5.0,74,0.00,,,0.00,0.00,VWS V14.01,2013-02-11 21:39:00,
2013-02-11 16:41:00,35.6,28.5,29.90,NNW,329,6.0,6.0,75,0.00,,,0.00,0.00,VWS V14.01,2013-02-11 21:41:00,
2013-02-11 16:42:00,35.6,28.5,29.90,NW,322,6.0,16.0,75,0.00,,,0.00,0.00,VWS V14.01,2013-02-11 21:42:00,
2013-02-11 16:44:00,35.6,28.5,29.90,NW,306,6.0,6.0,75,0.00,,,0.00,0.00,VWS V14.01,2013-02-11 21:44:00,
2013-02-11 16:46:00,35.6,28.1,29.91,NW,325,4.0,6.0,74,0.00,,,0.00,0.00,VWS V14.01,2013-02-11 21:46:00,
2013-02-11 16:47:00,35.6,28.1,29.90,NW,314,6.0,6.0,74,0.00,,,0.00,0.00,VWS V14.01,2013-02-11 21:47:00,
2013-02-11 16:49:00,35.6,28.1,29.91,NW,324,7.0,7.0,74,0.00,,,0.00,0.00,VWS V14.01,2013-02-11 21:49:00,
2013-02-11 16:51:00,35.6,28.1,29.91,NNW,344,7.0,9.0,74,0.00,,,0.00,0.00,VWS V14.01,2013-02-11 21:51:00,
2013-02-11 16:52:00,35.6,27.8,29.91,WNW,302,9.0,9.0,73,0.00,,,0.00,0.00,VWS V14.01,2013-02-11 21:52:00,
2013-02-11 16:53:00,35.6,27.8,29.91,NNW,340,5.0,9.0,73,0.00,,,0.00,0.00,VWS V14.01,2013-02-11 21:53:00,
2013-02-11 16:54:00,35.6,27.8,29.91,NW,323,9.0,9.0,73,0.00,,,0.00,0.00,VWS V14.01,2013-02-11 21:54:00,
2013-02-11 16:56:00,35.6,27.8,29.91,NW,315,4.0,4.0,73,0.00,,,0.00,0.00,VWS V14.01,2013-02-11 21:56:00,
2013-02-11 16:57:00,35.6,27.8,29.91,NNW,329,6.0,6.0,73,0.00,,,0.00,0.00,VWS V14.01,2013-02-11 21:57:00,
2013-02-11 16:58:00,35.6,27.8,29.91,WNW,302,5.0,12.0,73,0.00,,,0.00,0.00,VWS V14.01,2013-02-11 21:58:00,
2013-02-11 16:59:00,35.6,27.8,29.91,NNW,334,7.0,8.0,73,0.00,,,0.00,0.00,VWS V14.01,2013-02-11 21:59:00,
2013-02-11 17:01:00,35.6,27.8,29.91,WNW,294,5.0,5.0,73,0.00,,,0.00,0.00,VWS V14.01,2013-02-11 22:01:00,
2013-02-11 17:02:00,35.6,27.8,29.91,NW,306,5.0,8.0,73,0.00,,,0.00,0.00,VWS V14.01,2013-02-11 22:02:00,
2013-02-11 17:03:00,35.6,27.8,29.91,WNW,293,6.0,8.0,73,0.00,,,0.00,0.00,VWS V14.01,2013-02-11 22:03:00,
2013-02-11 17:04:00,35.6,27.8,29.91,NW,323,6.0,6.0,73,0.00,,,0.00,0.00,VWS V14.01,2013-02-11 22:04:00,
2013-02-11 17:06:00,35.5,28.0,29.91,NW,309,5.0,5.0,74,0.00,,,0.00,0.00,VWS V14.01,2013-02-11 22:06:00,
2013-02-11 17:07:00,35.6,28.1,29.91,NW,321,2.0,8.0,74,0.00,,,0.00,0.00,VWS V14.01,2013-02-11 22:07:00,
2013-02-11 17:08:00,35.5,28.0,29.91,North,5,7.0,7.0,74,0.00,,,0.00,0.00,VWS V14.01,2013-02-11 22:08:00,
2013-02-11 17:09:00,35.5,28.0,29.91,WNW,292,11.0,11.0,74,0.00,,,0.00,0.00,VWS V14.01,2013-02-11 22:09:00,
2013-02-11 17:11:00,35.5,28.0,29.91,WNW,302,4.0,6.0,74,0.00,,,0.00,0.00,VWS V14.01,2013-02-11 22:11:00,
2013-02-11 17:12:00,35.5,28.0,29.91,WNW,288,3.0,5.0,74,0.00,,,0.00,0.00,VWS V14.01,2013-02-11 22:12:00,
2013-02-11 17:13:00,35.5,28.0,29.91,NW,315,5.0,5.0,74,0.00,,,0.00,0.00,VWS V14.01,2013-02-11 22:13:00,
2013-02-11 17:14:00,35.5,28.0,29.91,NW,325,7.0,7.0,74,0.00,,,0.00,0.00,VWS V14.01,2013-02-11 22:14:00,
2013-02-11 17:16:00,35.5,28.0,29.91,WNW,299,6.0,6.0,74,0.00,,,0.00,0.00,VWS V14.01,2013-02-11 22:16:00,
2013-02-11 17:17:00,35.5,28.0,29.91,NNW,332,8.0,11.0,74,0.00,,,0.00,0.00,VWS V14.01,2013-02-11 22:17:00,
2013-02-11 17:18:00,35.6,28.1,29.91,NW,318,7.0,7.0,74,0.00,,,0.00,0.00,VWS V14.01,2013-02-11 22:18:00,
2013-02-11 17:20:00,35.6,28.1,29.91,WNW,284,7.0,8.0,74,0.00,,,0.00,0.00,VWS V14.01,2013-02-11 22:20:00,
2013-02-11 17:21:00,35.6,28.1,29.91,WNW,302,8.0,9.0,74,0.00,,,0.00,0.00,VWS V14.01,2013-02-11 22:21:00,
2013-02-11 17:22:00,35.6,28.1,29.91,WNW,300,5.0,8.0,74,0.00,,,0.00,0.00,VWS V14.01,2013-02-11 22:22:00,
2013-02-11 17:23:00,35.6,28.1,29.91,WNW,297,5.0,9.0,74,0.00,,,0.00,0.00,VWS V14.01,2013-02-11 22:23:00,
2013-02-11 17:25:00,35.6,28.1,29.91,NW,309,7.0,13.0,74,0.00,,,0.00,0.00,VWS V14.01,2013-02-11 22:25:00,
2013-02-11 17:26:00,35.6,28.1,29.91,NW,308,5.0,8.0,74,0.00,,,0.00,0.00,VWS V14.01,2013-02-11 22:26:00,
2013-02-11 17:27:00,35.6,28.1,29.91,NW,321,8.0,11.0,74,0.00,,,0.00,0.00,VWS V14.01,2013-02-11 22:27:00,
2013-02-11 17:28:00,35.6,28.1,29.91,NNW,346,6.0,8.0,74,0.00,,,0.00,0.00,VWS V14.01,2013-02-11 22:28:00,
2013-02-11 17:30:00,35.6,28.5,29.91,NW,325,3.0,5.0,75,0.00,,,0.00,0.00,VWS V14.01,2013-02-11 22:30:00,
2013-02-11 17:31:00,35.6,28.5,29.91,NNW,338,5.0,8.0,75,0.00,,,0.00,0.00,VWS V14.01,2013-02-11 22:31:00,
2013-02-11 17:32:00,35.6,28.5,29.92,NW,315,8.0,10.0,75,0.00,,,0.00,0.00,VWS V14.01,2013-02-11 22:32:00,
2013-02-11 17:33:00,35.6,28.5,29.91,NW,325,6.0,6.0,75,0.00,,,0.00,0.00,VWS V14.01,2013-02-11 22:33:00,
2013-02-11 17:35:00,35.6,28.1,29.91,NW,308,11.0,13.0,74,0.00,,,0.00,0.00,VWS V14.01,2013-02-11 22:35:00,
2013-02-11 17:37:00,35.6,28.1,29.92,NW,306,6.0,17.0,74,0.00,,,0.00,0.00,VWS V14.01,2013-02-11 22:37:00,
2013-02-11 17:38:00,35.7,28.2,29.91,NNW,329,4.0,4.0,74,0.00,,,0.00,0.00,VWS V14.01,2013-02-11 22:38:00,
2013-02-11 17:40:00,35.7,28.6,29.92,North,350,9.0,10.0,75,0.00,,,0.00,0.00,VWS V14.01,2013-02-11 22:40:00,
2013-02-11 17:42:00,35.7,28.6,29.92,NW,318,5.0,12.0,75,0.00,,,0.00,0.00,VWS V14.01,2013-02-11 22:42:00,
2013-02-11 17:43:00,35.7,28.6,29.92,NNW,327,4.0,15.0,75,0.00,,,0.00,0.00,VWS V14.01,2013-02-11 22:43:00,
2013-02-11 17:45:00,35.7,28.6,29.92,North,355,7.0,12.0,75,0.00,,,0.00,0.00,VWS V14.01,2013-02-11 22:45:00,
2013-02-11 17:47:00,35.6,28.5,29.92,NW,324,4.0,6.0,75,0.00,,,0.00,0.00,VWS V14.01,2013-02-11 22:47:00,
2013-02-11 17:48:00,35.6,28.5,29.92,NNW,337,2.0,5.0,75,0.00,,,0.00,0.00,VWS V14.01,2013-02-11 22:48:00,
2013-02-11 17:50:00,35.6,28.5,29.92,NNW,333,6.0,6.0,75,0.00,,,0.00,0.00,VWS V14.01,2013-02-11 22:50:00,
2013-02-11 17:52:00,35.6,28.5,29.92,NW,323,8.0,10.0,75,0.00,,,0.00,0.00,VWS V14.01,2013-02-11 22:52:00,
2013-02-11 17:53:00,35.6,28.5,29.92,NW,310,3.0,5.0,75,0.00,,,0.00,0.00,VWS V14.01,2013-02-11 22:53:00,
2013-02-11 17:55:00,35.6,28.5,29.92,NNW,339,0.0,5.0,75,0.00,,,0.00,0.00,VWS V14.01,2013-02-11 22:55:00,
2013-02-11 17:57:00,35.6,28.5,29.92,North,350,4.0,9.0,75,0.00,,,0.00,0.00,VWS V14.01,2013-02-11 22:57:00,
2013-02-11 17:58:00,35.6,28.5,29.92,WNW,300,6.0,6.0,75,0.00,,,0.00,0.00,VWS V14.01,2013-02-11 22:58:00,
2013-02-11 18:00:00,35.6,28.5,29.92,NNW,332,5.0,6.0,75,0.00,,,0.00,0.00,VWS V14.01,2013-02-11 23:00:00,
2013-02-11 18:02:00,35.6,28.5,29.93,NW,326,4.0,4.0,75,0.00,,,0.00,0.00,VWS V14.01,2013-02-11 23:02:00,
2013-02-11 18:03:00,35.6,28.5,29.92,NNW,332,3.0,11.0,75,0.00,,,0.00,0.00,VWS V14.01,2013-02-11 23:03:00,
2013-02-11 18:05:00,35.6,28.5,29.92,NNW,346,4.0,5.0,75,0.00,,,0.00,0.00,VWS V14.01,2013-02-11 23:05:00,
2013-02-11 18:07:00,35.6,28.1,29.92,NW,320,7.0,7.0,74,0.00,,,0.00,0.00,VWS V14.01,2013-02-11 23:07:00,
2013-02-11 18:08:00,35.6,28.1,29.92,NNW,347,5.0,14.0,74,0.00,,,0.00,0.00,VWS V14.01,2013-02-11 23:08:00,
2013-02-11 18:10:00,35.6,28.5,29.92,North,5,8.0,8.0,75,0.00,,,0.00,0.00,VWS V14.01,2013-02-11 23:10:00,
2013-02-11 18:12:00,35.6,28.5,29.93,NNW,334,6.0,8.0,75,0.00,,,0.00,0.00,VWS V14.01,2013-02-11 23:12:00,
2013-02-11 18:13:00,35.6,28.5,29.93,NNW,334,4.0,8.0,75,0.00,,,0.00,0.00,VWS V14.01,2013-02-11 23:13:00,
2013-02-11 18:15:00,35.6,28.5,29.93,NNW,330,6.0,7.0,75,0.00,,,0.00,0.00,VWS V14.01,2013-02-11 23:15:00,
2013-02-11 18:17:00,35.6,28.5,29.93,North,351,11.0,21.0,75,0.00,,,0.00,0.00,VWS V14.01,2013-02-11 23:17:00,
2013-02-11 18:18:00,35.6,28.5,29.93,NNW,335,5.0,21.0,75,0.00,,,0.00,0.00,VWS V14.01,2013-02-11 23:18:00,
2013-02-11 18:20:00,35.5,28.0,29.93,NNW,338,7.0,13.0,74,0.00,,,0.00,0.00,VWS V14.01,2013-02-11 23:20:00,
2013-02-11 18:22:00,35.5,28.0,29.93,NNW,336,5.0,7.0,74,0.00,,,0.00,0.00,VWS V14.01,2013-02-11 23:22:00,
2013-02-11 18:23:00,35.5,28.0,29.93,NNW,331,6.0,7.0,74,0.00,,,0.00,0.00,VWS V14.01,2013-02-11 23:23:00,
2013-02-11 18:25:00,35.5,28.0,29.93,NNW,348,6.0,9.0,74,0.00,,,0.00,0.00,VWS V14.01,2013-02-11 23:25:00,
2013-02-11 18:27:00,35.4,28.0,29.93,North,355,6.0,10.0,74,0.00,,,0.00,0.00,VWS V14.01,2013-02-11 23:27:00,
2013-02-11 18:28:00,35.4,28.0,29.93,NNW,340,5.0,10.0,74,0.00,,,0.00,0.00,VWS V14.01,2013-02-11 23:28:00,
2013-02-11 18:30:00,35.4,28.0,29.93,NW,309,4.0,14.0,74,0.00,,,0.00,0.00,VWS V14.01,2013-02-11 23:30:00,
2013-02-11 18:32:00,35.3,27.9,29.93,North,355,6.0,11.0,74,0.00,,,0.00,0.00,VWS V14.01,2013-02-11 23:32:00,
2013-02-11 18:33:00,35.3,27.9,29.93,NNW,346,5.0,11.0,74,0.00,,,0.00,0.00,VWS V14.01,2013-02-11 23:33:00,
2013-02-11 18:36:00,35.3,28.2,29.93,North,355,13.0,13.0,75,0.00,,,0.00,0.00,VWS V14.01,2013-02-11 23:36:00,
2013-02-11 18:37:00,35.2,28.1,29.93,North,355,6.0,6.0,75,0.00,,,0.00,0.00,VWS V14.01,2013-02-11 23:37:00,
2013-02-11 18:38:00,35.2,28.1,29.93,North,355,11.0,11.0,75,0.00,,,0.00,0.00,VWS V14.01,2013-02-11 23:38:00,
2013-02-11 18:39:00,35.2,28.1,29.93,NNW,344,3.0,14.0,75,0.00,,,0.00,0.00,VWS V14.01,2013-02-11 23:39:00,
2013-02-11 18:41:00,35.2,28.1,29.93,North,360,8.0,9.0,75,0.00,,,0.00,0.00,VWS V14.01,2013-02-11 23:41:00,
2013-02-11 18:42:00,35.1,28.3,29.93,NW,326,6.0,7.0,76,0.00,,,0.00,0.00,VWS V14.01,2013-02-11 23:42:00,
2013-02-11 18:43:00,35.1,28.3,29.93,NNW,344,5.0,6.0,76,0.00,,,0.00,0.00,VWS V14.01,2013-02-11 23:43:00,
2013-02-11 18:44:00,35.1,28.3,29.93,NNW,347,5.0,7.0,76,0.00,,,0.00,0.00,VWS V14.01,2013-02-11 23:44:00,
2013-02-11 18:46:00,35.0,28.2,29.93,North,355,10.0,10.0,76,0.00,,,0.00,0.00,VWS V14.01,2013-02-11 23:46:00,
2013-02-11 18:47:00,34.9,28.4,29.94,NNW,348,5.0,9.0,77,0.00,,,0.00,0.00,VWS V14.01,2013-02-11 23:47:00,
2013-02-11 18:48:00,34.9,28.4,29.94,North,350,4.0,4.0,77,0.00,,,0.00,0.00,VWS V14.01,2013-02-11 23:48:00,
2013-02-11 18:49:00,34.9,28.4,29.94,NNW,335,8.0,8.0,77,0.00,,,0.00,0.00,VWS V14.01,2013-02-11 23:49:00,
2013-02-11 18:51:00,34.9,28.4,29.94,NNW,342,5.0,12.0,77,0.00,,,0.00,0.00,VWS V14.01,2013-02-11 23:51:00,
2013-02-11 18:52:00,34.8,28.3,29.94,North,349,7.0,7.0,77,0.00,,,0.00,0.00,VWS V14.01,2013-02-11 23:52:00,
2013-02-11 18:53:00,34.8,28.3,29.94,North,355,7.0,7.0,77,0.00,,,0.00,0.00,VWS V14.01,2013-02-11 23:53:00,
2013-02-11 18:54:00,34.8,28.3,29.94,NNW,338,6.0,9.0,77,0.00,,,0.00,0.00,VWS V14.01,2013-02-11 23:54:00,
2013-02-11 18:56:00,34.8,28.3,29.94,North,355,5.0,10.0,77,0.00,,,0.00,0.00,VWS V14.01,2013-02-11 23:56:00,
2013-02-11 18:58:00,34.7,28.2,29.94,NNW,342,6.0,10.0,77,0.00,,,0.00,0.00,VWS V14.01,2013-02-11 23:58:00,
2013-02-11 18:59:00,34.7,28.2,29.94,NNW,345,6.0,6.0,77,0.00,,,0.00,0.00,VWS V14.01,2013-02-11 23:59:00,
2013-02-11 19:01:00,34.7,28.5,29.95,NNW,348,4.0,7.0,78,0.00,,,0.00,0.00,VWS V14.01,2013-02-12 00:01:00,
2013-02-11 19:03:00,34.7,28.5,29.94,NNW,333,11.0,13.0,78,0.00,,,0.00,0.00,VWS V14.01,2013-02-12 00:03:00,
2013-02-11 19:04:00,34.6,28.1,29.94,NNW,336,3.0,6.0,77,0.00,,,0.00,0.00,VWS V14.01,2013-02-12 00:04:00,
2013-02-11 19:06:00,34.6,28.5,29.94,NW,321,4.0,4.0,78,0.00,,,0.00,0.00,VWS V14.01,2013-02-12 00:06:00,
2013-02-11 19:08:00,34.6,28.1,29.95,NNW,348,6.0,11.0,77,0.00,,,0.00,0.00,VWS V14.01,2013-02-12 00:08:00,
2013-02-11 19:09:00,34.6,28.5,29.95,North,360,9.0,10.0,78,0.00,,,0.00,0.00,VWS V14.01,2013-02-12 00:09:00,
2013-02-11 19:11:00,34.6,28.1,29.95,NW,324,6.0,6.0,77,0.00,,,0.00,0.00,VWS V14.01,2013-02-12 00:11:00,
2013-02-11 19:13:00,34.6,28.5,29.95,NW,323,5.0,6.0,78,0.00,,,0.00,0.00,VWS V14.01,2013-02-12 00:13:00,
2013-02-11 19:14:00,34.6,28.1,29.95,North,5,8.0,8.0,77,0.00,,,0.00,0.00,VWS V14.01,2013-02-12 00:14:00,
2013-02-11 19:16:00,34.7,28.2,29.94,NNW,331,6.0,6.0,77,0.00,,,0.00,0.00,VWS V14.01,2013-02-12 00:16:00,
2013-02-11 19:18:00,34.7,28.2,29.95,North,355,10.0,13.0,77,0.00,,,0.00,0.00,VWS V14.01,2013-02-12 00:18:00,
2013-02-11 19:19:00,34.7,28.2,29.95,NNW,339,6.0,7.0,77,0.00,,,0.00,0.00,VWS V14.01,2013-02-12 00:19:00,
2013-02-11 19:21:00,34.7,28.2,29.95,NW,323,5.0,9.0,77,0.00,,,0.00,0.00,VWS V14.01,2013-02-12 00:21:00,
2013-02-11 19:23:00,34.7,28.2,29.95,NW,322,6.0,6.0,77,0.00,,,0.00,0.00,VWS V14.01,2013-02-12 00:23:00,
2013-02-11 19:24:00,34.7,28.2,29.95,NNW,342,5.0,9.0,77,0.00,,,0.00,0.00,VWS V14.01,2013-02-12 00:24:00,
2013-02-11 19:26:00,34.7,28.2,29.95,NNW,348,8.0,8.0,77,0.00,,,0.00,0.00,VWS V14.01,2013-02-12 00:26:00,
2013-02-11 19:28:00,34.7,28.5,29.95,North,360,7.0,12.0,78,0.00,,,0.00,0.00,VWS V14.01,2013-02-12 00:28:00,
2013-02-11 19:29:00,34.7,28.5,29.95,NNW,338,5.0,8.0,78,0.00,,,0.00,0.00,VWS V14.01,2013-02-12 00:29:00,
2013-02-11 19:31:00,34.6,28.5,29.95,North,5,4.0,4.0,78,0.00,,,0.00,0.00,VWS V14.01,2013-02-12 00:31:00,
2013-02-11 19:33:00,34.6,28.5,29.95,North,349,12.0,17.0,78,0.00,,,0.00,0.00,VWS V14.01,2013-02-12 00:33:00,
2013-02-11 19:35:00,34.6,28.1,29.95,North,360,11.0,12.0,77,0.00,,,0.00,0.00,VWS V14.01,2013-02-12 00:35:00,
2013-02-11 19:36:00,34.6,28.1,29.95,NNW,340,7.0,7.0,77,0.00,,,0.00,0.00,VWS V14.01,2013-02-12 00:36:00,
2013-02-11 19:38:00,34.6,28.1,29.95,NNW,346,4.0,7.0,77,0.00,,,0.00,0.00,VWS V14.01,2013-02-12 00:38:00,
2013-02-11 19:40:00,34.6,28.1,29.96,North,355,12.0,17.0,77,0.00,,,0.00,0.00,VWS V14.01,2013-02-12 00:40:00,
2013-02-11 19:42:00,34.5,27.7,29.95,NNW,334,6.0,8.0,76,0.00,,,0.00,0.00,VWS V14.01,2013-02-12 00:42:00,
2013-02-11 19:43:00,34.5,28.0,29.96,North,360,3.0,6.0,77,0.00,,,0.00,0.00,VWS V14.01,2013-02-12 00:43:00,
2013-02-11 19:44:00,34.4,28.0,29.96,NNW,347,8.0,9.0,77,0.00,,,0.00,0.00,VWS V14.01,2013-02-12 00:44:00,
2013-02-11 19:45:00,34.4,27.6,29.96,NNE,26,9.0,17.0,76,0.00,,,0.00,0.00,VWS V14.01,2013-02-12 00:45:00,
2013-02-11 19:47:00,34.4,27.3,29.95,North,350,5.0,14.0,75,0.00,,,0.00,0.00,VWS V14.01,2013-02-12 00:47:00,
2013-02-11 19:48:00,34.3,27.2,29.96,WNW,303,9.0,11.0,75,0.00,,,0.00,0.00,VWS V14.01,2013-02-12 00:48:00,
2013-02-11 19:49:00,34.3,27.2,29.96,NNW,342,10.0,14.0,75,0.00,,,0.00,0.00,VWS V14.01,2013-02-12 00:49:00,
2013-02-11 19:50:00,34.2,27.1,29.96,North,9,17.0,17.0,75,0.00,,,0.00,0.00,VWS V14.01,2013-02-12 00:50:00,
2013-02-11 19:52:00,34.2,26.8,29.96,North,349,10.0,16.0,74,0.00,,,0.00,0.00,VWS V14.01,2013-02-12 00:52:00,
2013-02-11 19:53:00,34.2,26.8,29.96,NNE,24,11.0,15.0,74,0.00,,,0.00,0.00,VWS V14.01,2013-02-12 00:53:00,
2013-02-11 19:54:00,34.1,26.7,29.96,NNW,343,6.0,9.0,74,0.00,,,0.00,0.00,VWS V14.01,2013-02-12 00:54:00,
2013-02-11 19:55:00,34.1,26.7,29.96,NNW,334,12.0,18.0,74,0.00,,,0.00,0.00,VWS V14.01,2013-02-12 00:55:00,
2013-02-11 19:57:00,34.1,26.7,29.96,NNW,347,7.0,13.0,74,0.00,,,0.00,0.00,VWS V14.01,2013-02-12 00:57:00,
2013-02-11 19:58:00,34.0,26.9,29.97,NNE,17,7.0,12.0,75,0.00,,,0.00,0.00,VWS V14.01,2013-02-12 00:58:00,
2013-02-11 19:59:00,34.0,26.9,29.97,NW,325,3.0,12.0,75,0.00,,,0.00,0.00,VWS V14.01,2013-02-12 00:59:00,
2013-02-11 20:00:00,34.0,26.9,29.97,NW,317,6.0,6.0,75,0.00,,,0.00,0.00,VWS V14.01,2013-02-12 01:00:00,
2013-02-11 20:02:00,33.9,26.5,29.97,NNE,14,7.0,17.0,74,0.00,,,0.00,0.00,VWS V14.01,2013-02-12 01:02:00,
2013-02-11 20:04:00,33.9,26.5,29.96,NNW,347,10.0,10.0,74,0.00,,,0.00,0.00,VWS V14.01,2013-02-12 01:04:00,
2013-02-11 20:05:00,33.9,26.5,29.96,NNW,329,8.0,16.0,74,0.00,,,0.00,0.00,VWS V14.01,2013-02-12 01:05:00,
2013-02-11 20:07:00,33.8,26.4,29.96,NNW,348,14.0,15.0,74,0.00,,,0.00,0.00,VWS V14.01,2013-02-12 01:07:00,
2013-02-11 20:09:00,33.7,26.3,29.96,North,5,13.0,14.0,74,0.00,,,0.00,0.00,VWS V14.01,2013-02-12 01:09:00,
2013-02-11 20:10:00,33.7,26.3,29.97,NW,325,10.0,11.0,74,0.00,,,0.00,0.00,VWS V14.01,2013-02-12 01:10:00,
2013-02-11 20:12:00,33.7,26.3,29.96,NNW,341,10.0,18.0,74,0.00,,,0.00,0.00,VWS V14.01,2013-02-12 01:12:00,
2013-02-11 20:14:00,33.6,26.5,29.97,North,5,5.0,10.0,75,0.00,,,0.00,0.00,VWS V14.01,2013-02-12 01:14:00,
2013-02-11 20:15:00,33.6,26.2,29.97,North,360,6.0,14.0,74,0.00,,,0.00,0.00,VWS V14.01,2013-02-12 01:15:00,
2013-02-11 20:17:00,33.6,26.2,29.97,NNW,333,4.0,8.0,74,0.00,,,0.00,0.00,VWS V14.01,2013-02-12 01:17:00,
2013-02-11 20:19:00,33.5,26.1,29.97,NW,309,8.0,13.0,74,0.00,,,0.00,0.00,VWS V14.01,2013-02-12 01:19:00,
2013-02-11 20:20:00,33.5,26.1,29.97,North,355,6.0,12.0,74,0.00,,,0.00,0.00,VWS V14.01,2013-02-12 01:20:00,
2013-02-11 20:22:00,33.5,26.4,29.97,NNW,333,6.0,10.0,75,0.00,,,0.00,0.00,VWS V14.01,2013-02-12 01:22:00,
2013-02-11 20:24:00,33.5,26.1,29.97,NNW,327,8.0,12.0,74,0.00,,,0.00,0.00,VWS V14.01,2013-02-12 01:24:00,
2013-02-11 20:25:00,33.5,26.4,29.97,NNW,336,8.0,8.0,75,0.00,,,0.00,0.00,VWS V14.01,2013-02-12 01:25:00,
2013-02-11 20:27:00,33.4,26.3,29.97,North,11,7.0,7.0,75,0.00,,,0.00,0.00,VWS V14.01,2013-02-12 01:27:00,
2013-02-11 20:29:00,33.4,26.3,29.97,NNW,340,7.0,10.0,75,0.00,,,0.00,0.00,VWS V14.01,2013-02-12 01:29:00,
2013-02-11 20:30:00,33.4,26.3,29.97,NNW,340,9.0,11.0,75,0.00,,,0.00,0.00,VWS V14.01,2013-02-12 01:30:00,
2013-02-11 20:32:00,33.3,26.2,29.97,NNW,334,5.0,14.0,75,0.00,,,0.00,0.00,VWS V14.01,2013-02-12 01:32:00,
2013-02-11 20:34:00,33.3,26.2,29.97,NNW,338,6.0,14.0,75,0.00,,,0.00,0.00,VWS V14.01,2013-02-12 01:34:00,
2013-02-11 20:35:00,33.3,26.2,29.97,NNE,15,14.0,14.0,75,0.00,,,0.00,0.00,VWS V14.01,2013-02-12 01:35:00,
2013-02-11 20:37:00,33.2,26.1,29.97,North,360,6.0,8.0,75,0.00,,,0.00,0.00,VWS V14.01,2013-02-12 01:37:00,
2013-02-11 20:39:00,33.2,26.1,29.97,NNW,344,5.0,17.0,75,0.00,,,0.00,0.00,VWS V14.01,2013-02-12 01:39:00,
2013-02-11 20:40:00,33.2,26.5,29.97,NNW,343,6.0,10.0,76,0.00,,,0.00,0.00,VWS V14.01,2013-02-12 01:40:00,
2013-02-11 20:42:00,33.2,26.1,29.98,NW,326,7.0,7.0,75,0.00,,,0.00,0.00,VWS V14.01,2013-02-12 01:42:00,
2013-02-11 20:44:00,33.2,26.5,29.97,North,351,4.0,13.0,76,0.00,,,0.00,0.00,VWS V14.01,2013-02-12 01:44:00,
2013-02-11 20:46:00,33.1,26.4,29.97,NW,317,10.0,14.0,76,0.00,,,0.00,0.00,VWS V14.01,2013-02-12 01:46:00,
2013-02-11 20:47:00,33.1,26.4,29.97,NNW,344,14.0,16.0,76,0.00,,,0.00,0.00,VWS V14.01,2013-02-12 01:47:00,
2013-02-11 20:49:00,33.2,26.5,29.97,NW,317,5.0,13.0,76,0.00,,,0.00,0.00,VWS V14.01,2013-02-12 01:49:00,
2013-02-11 20:50:00,33.1,26.4,29.98,NW,323,7.0,13.0,76,0.00,,,0.00,0.00,VWS V14.01,2013-02-12 01:50:00,
2013-02-11 20:51:00,33.1,26.4,29.98,North,355,4.0,12.0,76,0.00,,,0.00,0.00,VWS V14.01,2013-02-12 01:51:00,
2013-02-11 20:52:00,33.1,26.4,29.97,NNW,327,4.0,7.0,76,0.00,,,0.00,0.00,VWS V14.01,2013-02-12 01:52:00,
2013-02-11 20:54:00,33.1,26.4,29.98,North,355,15.0,16.0,76,0.00,,,0.00,0.00,VWS V14.01,2013-02-12 01:54:00,
2013-02-11 20:55:00,33.1,26.4,29.97,WNW,298,4.0,17.0,76,0.00,,,0.00,0.00,VWS V14.01,2013-02-12 01:55:00,
2013-02-11 20:56:00,33.1,26.4,29.97,NNW,334,13.0,13.0,76,0.00,,,0.00,0.00,VWS V14.01,2013-02-12 01:56:00,
2013-02-11 20:57:00,33.1,26.4,29.97,NW,319,6.0,6.0,76,0.00,,,0.00,0.00,VWS V14.01,2013-02-12 01:57:00,
2013-02-11 20:59:00,33.1,26.4,29.97,North,355,9.0,13.0,76,0.00,,,0.00,0.00,VWS V14.01,2013-02-12 01:59:00,
2013-02-11 21:00:00,33.1,26.4,29.97,NNW,340,9.0,12.0,76,0.00,,,0.00,0.00,VWS V14.01,2013-02-12 02:00:00,
2013-02-11 21:01:00,33.1,26.4,29.97,NNW,333,4.0,10.0,76,0.00,,,0.00,0.00,VWS V14.01,2013-02-12 02:01:00,
2013-02-11 21:02:00,33.0,26.3,29.97,NNW,333,12.0,14.0,76,0.00,,,0.00,0.00,VWS V14.01,2013-02-12 02:02:00,
2013-02-11 21:04:00,33.1,26.4,29.97,North,355,9.0,15.0,76,0.00,,,0.00,0.00,VWS V14.01,2013-02-12 02:04:00,
2013-02-11 21:05:00,33.1,26.4,29.97,NW,317,5.0,13.0,76,0.00,,,0.00,0.00,VWS V14.01,2013-02-12 02:05:00,
2013-02-11 21:06:00,33.0,26.3,29.97,North,351,9.0,9.0,76,0.00,,,0.00,0.00,VWS V14.01,2013-02-12 02:06:00,
2013-02-11 21:07:00,33.0,26.3,29.97,NW,326,3.0,6.0,76,0.00,,,0.00,0.00,VWS V14.01,2013-02-12 02:07:00,
2013-02-11 21:09:00,33.0,26.3,29.97,NNW,331,7.0,10.0,76,0.00,,,0.00,0.00,VWS V14.01,2013-02-12 02:09:00,
2013-02-11 21:10:00,33.0,26.3,29.97,NW,325,6.0,15.0,76,0.00,,,0.00,0.00,VWS V14.01,2013-02-12 02:10:00,
2013-02-11 21:11:00,33.0,26.3,29.97,North,355,9.0,12.0,76,0.00,,,0.00,0.00,VWS V14.01,2013-02-12 02:11:00,
2013-02-11 21:12:00,33.0,26.3,29.97,North,355,11.0,16.0,76,0.00,,,0.00,0.00,VWS V14.01,2013-02-12 02:12:00,
2013-02-11 21:14:00,33.0,26.6,29.97,North,5,7.0,11.0,77,0.00,,,0.00,0.00,VWS V14.01,2013-02-12 02:14:00,
2013-02-11 21:15:00,33.0,26.6,29.97,NNW,346,7.0,7.0,77,0.00,,,0.00,0.00,VWS V14.01,2013-02-12 02:15:00,
2013-02-11 21:16:00,33.0,26.6,29.97,NNW,347,8.0,14.0,77,0.00,,,0.00,0.00,VWS V14.01,2013-02-12 02:16:00,
2013-02-11 21:17:00,33.0,26.6,29.97,NNW,348,3.0,5.0,77,0.00,,,0.00,0.00,VWS V14.01,2013-02-12 02:17:00,
2013-02-11 21:19:00,33.0,26.6,29.97,North,360,14.0,17.0,77,0.00,,,0.00,0.00,VWS V14.01,2013-02-12 02:19:00,
2013-02-11 21:20:00,32.9,26.5,29.97,NNW,334,11.0,11.0,77,0.00,,,0.00,0.00,VWS V14.01,2013-02-12 02:20:00,
2013-02-11 21:21:00,33.0,26.6,29.97,NNW,340,4.0,7.0,77,0.00,,,0.00,0.00,VWS V14.01,2013-02-12 02:21:00,
2013-02-11 21:22:00,33.0,26.6,29.97,North,5,7.0,7.0,77,0.00,,,0.00,0.00,VWS V14.01,2013-02-12 02:22:00,
2013-02-11 21:24:00,32.9,26.5,29.97,NNW,345,2.0,6.0,77,0.00,,,0.00,0.00,VWS V14.01,2013-02-12 02:24:00,
2013-02-11 21:25:00,32.9,26.5,29.97,North,355,6.0,6.0,77,0.00,,,0.00,0.00,VWS V14.01,2013-02-12 02:25:00,
2013-02-11 21:26:00,32.9,26.5,29.97,NNW,341,6.0,9.0,77,0.00,,,0.00,0.00,VWS V14.01,2013-02-12 02:26:00,
2013-02-11 21:27:00,32.9,26.5,29.97,NNW,331,5.0,7.0,77,0.00,,,0.00,0.00,VWS V14.01,2013-02-12 02:27:00,
2013-02-11 21:29:00,32.9,26.5,29.97,NW,312,3.0,10.0,77,0.00,,,0.00,0.00,VWS V14.01,2013-02-12 02:29:00,
2013-02-11 21:30:00,32.9,26.8,29.97,NNW,343,9.0,10.0,78,0.00,,,0.00,0.00,VWS V14.01,2013-02-12 02:30:00,
2013-02-11 21:31:00,32.8,26.4,29.97,NNW,340,5.0,14.0,77,0.00,,,0.00,0.00,VWS V14.01,2013-02-12 02:31:00,
2013-02-11 21:32:00,32.9,26.8,29.97,North,5,13.0,14.0,78,0.00,,,0.00,0.00,VWS V14.01,2013-02-12 02:32:00,
2013-02-11 21:34:00,32.9,26.8,29.98,NNW,341,7.0,12.0,78,0.00,,,0.00,0.00,VWS V14.01,2013-02-12 02:34:00,
2013-02-11 21:35:00,32.9,26.8,29.98,NNW,344,9.0,9.0,78,0.00,,,0.00,0.00,VWS V14.01,2013-02-12 02:35:00,
2013-02-11 21:36:00,32.9,26.8,29.98,NNW,342,6.0,13.0,78,0.00,,,0.00,0.00,VWS V14.01,2013-02-12 02:36:00,
2013-02-11 21:37:00,32.9,26.8,29.98,North,5,6.0,9.0,78,0.00,,,0.00,0.00,VWS V14.01,2013-02-12 02:37:00,
2013-02-11 21:39:00,32.9,26.8,29.98,NNW,331,4.0,8.0,78,0.00,,,0.00,0.00,VWS V14.01,2013-02-12 02:39:00,
2013-02-11 21:40:00,32.9,26.8,29.98,NNW,342,5.0,5.0,78,0.00,,,0.00,0.00,VWS V14.01,2013-02-12 02:40:00,
2013-02-11 21:41:00,32.9,26.8,29.98,NNW,329,5.0,9.0,78,0.00,,,0.00,0.00,VWS V14.01,2013-02-12 02:41:00,
2013-02-11 21:43:00,32.9,26.8,29.98,NNW,327,6.0,10.0,78,0.00,,,0.00,0.00,VWS V14.01,2013-02-12 02:43:00,
2013-02-11 21:44:00,32.9,26.8,29.98,North,360,7.0,7.0,78,0.00,,,0.00,0.00,VWS V14.01,2013-02-12 02:44:00,
2013-02-11 21:45:00,32.9,26.8,29.98,NNW,333,5.0,5.0,78,0.00,,,0.00,0.00,VWS V14.01,2013-02-12 02:45:00,
2013-02-11 21:46:00,32.9,26.8,29.98,NNW,338,4.0,7.0,78,0.00,,,0.00,0.00,VWS V14.01,2013-02-12 02:46:00,
2013-02-11 21:48:00,32.9,26.8,29.98,NNW,327,2.0,18.0,78,0.00,,,0.00,0.00,VWS V14.01,2013-02-12 02:48:00,
2013-02-11 21:49:00,32.9,26.8,29.98,NNW,346,5.0,5.0,78,0.00,,,0.00,0.00,VWS V14.01,2013-02-12 02:49:00,
2013-02-11 21:50:00,32.9,26.8,29.98,NNW,327,9.0,14.0,78,0.00,,,0.00,0.00,VWS V14.01,2013-02-12 02:50:00,
2013-02-11 21:51:00,33.0,26.9,29.98,NW,326,6.0,13.0,78,0.00,,,0.00,0.00,VWS V14.01,2013-02-12 02:51:00,
2013-02-11 21:53:00,33.0,26.9,29.98,North,350,10.0,14.0,78,0.00,,,0.00,0.00,VWS V14.01,2013-02-12 02:53:00,
2013-02-11 21:54:00,33.0,26.9,29.98,NW,306,7.0,7.0,78,0.00,,,0.00,0.00,VWS V14.01,2013-02-12 02:54:00,
2013-02-11 21:55:00,33.0,26.9,29.98,NNW,343,9.0,10.0,78,0.00,,,0.00,0.00,VWS V14.01,2013-02-12 02:55:00,
2013-02-11 21:56:00,33.0,26.9,29.98,NW,322,4.0,13.0,78,0.00,,,0.00,0.00,VWS V14.01,2013-02-12 02:56:00,
2013-02-11 21:58:00,33.0,26.9,29.98,NNW,344,6.0,7.0,78,0.00,,,0.00,0.00,VWS V14.01,2013-02-12 02:58:00,
2013-02-11 21:59:00,33.0,26.9,29.98,NW,325,5.0,5.0,78,0.00,,,0.00,0.00,VWS V14.01,2013-02-12 02:59:00,
2013-02-11 22:00:00,33.0,26.9,29.98,NNE,30,7.0,7.0,78,0.00,,,0.00,0.00,VWS V14.01,2013-02-12 03:00:00,
2013-02-11 22:01:00,33.0,26.9,29.98,NNW,331,7.0,13.0,78,0.00,,,0.00,0.00,VWS V14.01,2013-02-12 03:01:00,
2013-02-11 22:03:00,33.0,26.9,29.98,North,355,2.0,13.0,78,0.00,,,0.00,0.00,VWS V14.01,2013-02-12 03:03:00,
2013-02-11 22:04:00,33.0,26.9,29.99,NW,324,10.0,10.0,78,0.00,,,0.00,0.00,VWS V14.01,2013-02-12 03:04:00,
2013-02-11 22:05:00,33.0,26.9,29.98,North,355,8.0,10.0,78,0.00,,,0.00,0.00,VWS V14.01,2013-02-12 03:05:00,
2013-02-11 22:06:00,33.0,26.9,29.98,North,355,10.0,10.0,78,0.00,,,0.00,0.00,VWS V14.01,2013-02-12 03:06:00,
2013-02-11 22:08:00,33.0,26.9,29.98,NNW,342,7.0,11.0,78,0.00,,,0.00,0.00,VWS V14.01,2013-02-12 03:08:00,
2013-02-11 22:09:00,33.0,26.9,29.98,NNW,329,4.0,5.0,78,0.00,,,0.00,0.00,VWS V14.01,2013-02-12 03:09:00,
2013-02-11 22:10:00,33.0,26.9,29.98,West,279,8.0,9.0,78,0.00,,,0.00,0.00,VWS V14.01,2013-02-12 03:10:00,
2013-02-11 22:12:00,33.1,27.0,29.99,NNE,13,7.0,11.0,78,0.00,,,0.00,0.00,VWS V14.01,2013-02-12 03:12:00,
2013-02-11 22:13:00,33.0,26.9,29.98,NW,309,5.0,9.0,78,0.00,,,0.00,0.00,VWS V14.01,2013-02-12 03:13:00,
2013-02-11 22:14:00,33.1,27.0,29.98,NNW,342,9.0,10.0,78,0.00,,,0.00,0.00,VWS V14.01,2013-02-12 03:14:00,
2013-02-11 22:15:00,33.1,27.0,29.98,NNW,348,12.0,12.0,78,0.00,,,0.00,0.00,VWS V14.01,2013-02-12 03:15:00,
2013-02-11 22:17:00,33.1,27.0,29.98,North,355,4.0,12.0,78,0.00,,,0.00,0.00,VWS V14.01,2013-02-12 03:17:00,
2013-02-11 22:18:00,33.1,27.0,29.98,NNW,347,4.0,9.0,78,0.00,,,0.00,0.00,VWS V14.01,2013-02-12 03:18:00,
2013-02-11 22:19:00,33.1,27.0,29.98,North,360,3.0,7.0,78,0.00,,,0.00,0.00,VWS V14.01,2013-02-12 03:19:00,
2013-02-11 22:20:00,33.1,27.0,29.98,NNW,338,1.0,3.0,78,0.00,,,0.00,0.00,VWS V14.01,2013-02-12 03:20:00,
2013-02-11 22:22:00,33.1,27.0,29.98,NNW,331,6.0,10.0,78,0.00,,,0.00,0.00,VWS V14.01,2013-02-12 03:22:00,
2013-02-11 22:23:00,33.1,27.0,29.98,NNW,338,6.0,13.0,78,0.00,,,0.00,0.00,VWS V14.01,2013-02-12 03:23:00,
2013-02-11 22:24:00,33.1,26.7,29.98,NNW,333,6.0,12.0,77,0.00,,,0.00,0.00,VWS V14.01,2013-02-12 03:24:00,
2013-02-11 22:25:00,33.1,26.7,29.98,NNW,339,3.0,8.0,77,0.00,,,0.00,0.00,VWS V14.01,2013-02-12 03:25:00,
2013-02-11 22:27:00,33.1,27.0,29.98,NW,326,5.0,5.0,78,0.00,,,0.00,0.00,VWS V14.01,2013-02-12 03:27:00,
2013-02-11 22:28:00,33.1,26.7,29.98,NNW,343,8.0,8.0,77,0.00,,,0.00,0.00,VWS V14.01,2013-02-12 03:28:00,
2013-02-11 22:29:00,33.0,26.6,29.98,NNW,330,11.0,11.0,77,0.00,,,0.00,0.00,VWS V14.01,2013-02-12 03:29:00,
2013-02-11 22:30:00,33.1,26.7,29.98,NNW,340,4.0,5.0,77,0.00,,,0.00,0.00,VWS V14.01,2013-02-12 03:30:00,
2013-02-11 22:32:00,33.1,26.7,29.98,North,5,11.0,14.0,77,0.00,,,0.00,0.00,VWS V14.01,2013-02-12 03:32:00,
2013-02-11 22:33:00,33.1,26.7,29.98,NNW,342,5.0,6.0,77,0.00,,,0.00,0.00,VWS V14.01,2013-02-12 03:33:00,
2013-02-11 22:34:00,33.1,26.7,29.98,NW,314,5.0,13.0,77,0.00,,,0.00,0.00,VWS V14.01,2013-02-12 03:34:00,
2013-02-11 22:35:00,33.1,26.7,29.98,North,360,7.0,11.0,77,0.00,,,0.00,0.00,VWS V14.01,2013-02-12 03:35:00,
2013-02-11 22:37:00,33.0,26.6,29.99,NNW,336,6.0,14.0,77,0.00,,,0.00,0.00,VWS V14.01,2013-02-12 03:37:00,
2013-02-11 22:38:00,33.0,26.6,29.99,North,355,9.0,9.0,77,0.00,,,0.00,0.00,VWS V14.01,2013-02-12 03:38:00,
2013-02-11 22:39:00,33.0,26.6,29.99,NNW,344,5.0,6.0,77,0.00,,,0.00,0.00,VWS V14.01,2013-02-12 03:39:00,
2013-02-11 22:40:00,33.0,26.9,29.99,NNW,340,3.0,6.0,78,0.00,,,0.00,0.00,VWS V14.01,2013-02-12 03:40:00,
2013-02-11 22:42:00,32.9,26.8,29.99,North,355,11.0,16.0,78,0.00,,,0.00,0.00,VWS V14.01,2013-02-12 03:42:00,
2013-02-11 22:43:00,32.9,26.5,29.98,North,5,15.0,15.0,77,0.00,,,0.00,0.00,VWS V14.01,2013-02-12 03:43:00,
2013-02-11 22:44:00,32.9,26.5,29.99,NW,314,8.0,12.0,77,0.00,,,0.00,0.00,VWS V14.01,2013-02-12 03:44:00,
2013-02-11 22:45:00,32.8,26.4,29.99,NW,325,4.0,7.0,77,0.00,,,0.00,0.00,VWS V14.01,2013-02-12 03:45:00,
2013-02-11 22:47:00,32.8,26.4,29.99,NNW,338,6.0,17.0,77,0.00,,,0.00,0.00,VWS V14.01,2013-02-12 03:47:00,
2013-02-11 22:48:00,32.7,26.3,29.99,North,5,12.0,12.0,77,0.00,,,0.00,0.00,VWS V14.01,2013-02-12 03:48:00,
2013-02-11 22:49:00,32.7,26.3,29.99,NNE,15,8.0,14.0,77,0.00,,,0.00,0.00,VWS V14.01,2013-02-12 03:49:00,
2013-02-11 22:50:00,32.6,26.2,29.99,NNW,338,5.0,14.0,77,0.00,,,0.00,0.00,VWS V14.01,2013-02-12 03:50:00,
2013-02-11 22:52:00,32.6,26.2,29.98,NNW,345,14.0,15.0,77,0.00,,,0.00,0.00,VWS V14.01,2013-02-12 03:52:00,
2013-02-11 22:53:00,32.6,25.9,29.99,NNE,15,8.0,11.0,76,0.00,,,0.00,0.00,VWS V14.01,2013-02-12 03:53:00,
2013-02-11 22:55:00,32.5,26.1,29.99,NNE,12,6.0,9.0,77,0.00,,,0.00,0.00,VWS V14.01,2013-02-12 03:55:00,
2013-02-11 22:57:00,32.4,25.7,29.99,NNW,347,13.0,15.0,76,0.00,,,0.00,0.00,VWS V14.01,2013-02-12 03:57:00,
2013-02-11 22:58:00,32.4,25.7,29.99,NNW,338,6.0,12.0,76,0.00,,,0.00,0.00,VWS V14.01,2013-02-12 03:58:00,
2013-02-11 23:00:00,32.3,25.6,29.99,NNW,340,10.0,13.0,76,0.00,,,0.00,0.00,VWS V14.01,2013-02-12 04:00:00,
2013-02-11 23:02:00,32.2,25.5,29.99,North,360,12.0,19.0,76,0.00,,,0.00,0.00,VWS V14.01,2013-02-12 04:02:00,
2013-02-11 23:03:00,32.2,25.5,29.99,NNW,348,6.0,6.0,76,0.00,,,0.00,0.00,VWS V14.01,2013-02-12 04:03:00,
2013-02-11 23:05:00,32.1,25.4,29.99,North,355,5.0,11.0,76,0.00,,,0.00,0.00,VWS V14.01,2013-02-12 04:05:00,
2013-02-11 23:07:00,32.0,25.3,29.99,North,11,11.0,12.0,76,0.00,,,0.00,0.00,VWS V14.01,2013-02-12 04:07:00,
2013-02-11 23:08:00,32.0,25.3,29.99,NNE,12,8.0,15.0,76,0.00,,,0.00,0.00,VWS V14.01,2013-02-12 04:08:00,
2013-02-11 23:10:00,31.9,25.2,29.99,NNW,346,5.0,10.0,76,0.00,,,0.00,0.00,VWS V14.01,2013-02-12 04:10:00,
2013-02-11 23:12:00,31.9,25.2,29.99,North,350,11.0,11.0,76,0.00,,,0.00,0.00,VWS V14.01,2013-02-12 04:12:00,
2013-02-11 23:13:00,31.9,25.2,29.99,NNW,348,5.0,10.0,76,0.00,,,0.00,0.00,VWS V14.01,2013-02-12 04:13:00,
2013-02-11 23:15:00,31.8,25.4,29.99,NW,317,6.0,10.0,77,0.00,,,0.00,0.00,VWS V14.01,2013-02-12 04:15:00,
2013-02-11 23:17:00,31.7,25.3,29.99,North,349,12.0,15.0,77,0.00,,,0.00,0.00,VWS V14.01,2013-02-12 04:17:00,
2013-02-11 23:18:00,31.7,25.3,29.99,North,355,9.0,11.0,77,0.00,,,0.00,0.00,VWS V14.01,2013-02-12 04:18:00,
2013-02-11 23:20:00,31.7,25.3,30.00,North,349,8.0,11.0,77,0.00,,,0.00,0.00,VWS V14.01,2013-02-12 04:20:00,
2013-02-11 23:22:00,31.7,25.3,29.99,North,350,4.0,5.0,77,0.00,,,0.00,0.00,VWS V14.01,2013-02-12 04:22:00,
2013-02-11 23:23:00,31.7,25.3,29.99,NNW,342,7.0,7.0,77,0.00,,,0.00,0.00,VWS V14.01,2013-02-12 04:23:00,
2013-02-11 23:25:00,31.6,25.5,29.99,North,351,6.0,7.0,78,0.00,,,0.00,0.00,VWS V14.01,2013-02-12 04:25:00,
2013-02-11 23:26:00,31.6,25.5,29.99,North,350,6.0,8.0,78,0.00,,,0.00,0.00,VWS V14.01,2013-02-12 04:26:00,
2013-02-11 23:27:00,31.6,25.5,29.99,North,9,7.0,9.0,78,0.00,,,0.00,0.00,VWS V14.01,2013-02-12 04:27:00,
2013-02-11 23:28:00,31.6,25.5,29.99,NNW,335,5.0,12.0,78,0.00,,,0.00,0.00,VWS V14.01,2013-02-12 04:28:00,
2013-02-11 23:30:00,31.5,25.4,29.99,NNW,342,5.0,5.0,78,0.00,,,0.00,0.00,VWS V14.01,2013-02-12 04:30:00,
2013-02-11 23:31:00,31.5,25.4,29.99,NNW,343,5.0,5.0,78,0.00,,,0.00,0.00,VWS V14.01,2013-02-12 04:31:00,
2013-02-11 23:32:00,31.5,25.8,29.99,NNW,347,3.0,5.0,79,0.00,,,0.00,0.00,VWS V14.01,2013-02-12 04:32:00,
2013-02-11 23:33:00,31.5,25.8,30.00,NNW,338,3.0,5.0,79,0.00,,,0.00,0.00,VWS V14.01,2013-02-12 04:33:00,
2013-02-11 23:35:00,31.4,25.6,30.00,NNW,346,3.0,3.0,79,0.00,,,0.00,0.00,VWS V14.01,2013-02-12 04:35:00,
2013-02-11 23:36:00,31.4,25.6,30.00,NNW,334,7.0,7.0,79,0.00,,,0.00,0.00,VWS V14.01,2013-02-12 04:36:00,
2013-02-11 23:37:00,31.4,25.6,30.00,NNW,345,2.0,8.0,79,0.00,,,0.00,0.00,VWS V14.01,2013-02-12 04:37:00,
2013-02-11 23:38:00,31.4,25.6,30.00,North,349,6.0,9.0,79,0.00,,,0.00,0.00,VWS V14.01,2013-02-12 04:38:00,
2013-02-11 23:40:00,31.4,25.6,30.00,NNW,342,6.0,7.0,79,0.00,,,0.00,0.00,VWS V14.01,2013-02-12 04:40:00,
2013-02-11 23:41:00,31.4,25.6,30.00,North,350,6.0,11.0,79,0.00,,,0.00,0.00,VWS V14.01,2013-02-12 04:41:00,
2013-02-11 23:42:00,31.4,25.6,30.00,North,355,9.0,9.0,79,0.00,,,0.00,0.00,VWS V14.01,2013-02-12 04:42:00,
2013-02-11 23:43:00,31.4,26.0,30.00,NNW,337,4.0,6.0,80,0.00,,,0.00,0.00,VWS V14.01,2013-02-12 04:43:00,
2013-02-11 23:45:00,31.4,26.0,30.00,North,360,5.0,8.0,80,0.00,,,0.00,0.00,VWS V14.01,2013-02-12 04:45:00,
2013-02-11 23:46:00,31.3,25.9,30.00,North,355,4.0,8.0,80,0.00,,,0.00,0.00,VWS V14.01,2013-02-12 04:46:00,
2013-02-11 23:47:00,31.3,25.9,30.00,NNW,339,6.0,10.0,80,0.00,,,0.00,0.00,VWS V14.01,2013-02-12 04:47:00,
2013-02-11 23:48:00,31.3,25.9,30.00,NW,324,6.0,7.0,80,0.00,,,0.00,0.00,VWS V14.01,2013-02-12 04:48:00,
2013-02-11 23:50:00,31.2,25.8,30.00,NW,316,2.0,6.0,80,0.00,,,0.00,0.00,VWS V14.01,2013-02-12 04:50:00,
2013-02-11 23:51:00,31.2,25.8,30.00,NNW,336,5.0,5.0,80,0.00,,,0.00,0.00,VWS V14.01,2013-02-12 04:51:00,
2013-02-11 23:52:00,31.2,26.1,30.00,NNW,346,3.0,5.0,81,0.00,,,0.00,0.00,VWS V14.01,2013-02-12 04:52:00,
2013-02-11 23:54:00,31.2,26.1,30.00,NNW,338,2.0,7.0,81,0.00,,,0.00,0.00,VWS V14.01,2013-02-12 04:54:00,
2013-02-11 23:55:00,31.2,26.1,30.00,NNW,331,6.0,7.0,81,0.00,,,0.00,0.00,VWS V14.01,2013-02-12 04:55:00,
2013-02-11 23:56:00,31.2,26.1,30.00,NNW,332,3.0,3.0,81,0.00,,,0.00,0.00,VWS V14.01,2013-02-12 04:56:00,
2013-02-11 23:57:00,31.2,26.1,30.00,NW,316,5.0,6.0,81,0.00,,,0.00,0.00,VWS V14.01,2013-02-12 04:57:00,
2013-02-11 23:59:00,31.3,26.2,30.00,NW,311,7.0,7.0,81,0.00,,,0.00,0.00,VWS V14.01,2013-02-12 04:59:00,